[{"header": {"dx": 0.06612293990616946, "dy": 0.0552356325346848, "nx": 98, "ny": 59, "la1": 35.046912555036876, "la2": 31.78801023549047, "lo1": -121.43107172385933, "lo2": -114.95102361305473, "refTime": "2026040819", "parameterCategory": 1, "parameterNumber": 2}, "data": [5.1, 5.1, 5.1, 5.08, 5.65, 6.15, 6.41, 6.56, 6.8, 7.51, 7.09, 6.79, 8.29, 7.85, 6.16, 2.16, 0.0, -1.01, -2.69, -2.69, -4.37, -4.0, -4.42, -3.97, -3.72, -3.47, -3.91, -3.63, -2.99, -2.76, -2.2, -1.08, 0.0, 0.0, 1.08, 1.99, 3.22, 3.72, 4.74, 5.49, 5.82, 6.99, 8.18, 9.09, 10.01, 10.66, 11.9, 12.27, 11.28, 10.04, 8.18, 7.2, 6.45, 5.81, 5.26, 4.98, 4.98, 5.6, 5.94, 5.94, 5.94, 5.51, 5.26, 5.26, 5.29, 5.73, 6.2, 6.64, 6.94, 7.54, 7.1, 6.26, 6.26, 5.81, 5.36, 4.92, 4.92, 4.02, 3.82, 1.4, 0.0, 0.0, 1.6, 1.6, 2.21, 2.97, 4.02, 4.92, 4.77, 1.05, -0.0, -0.0, -0.0, 0.94, 1.96, 0.95, -0.0, -1.84, 5.1, 5.1, 5.1, 5.69, 5.65, 5.88, 6.15, 6.56, 6.56, 6.8, 6.6, 7.76, 7.12, 6.94, 8.06, 4.74, 0.0, 0.0, -1.4, -2.67, -4.2, -4.2, -4.2, -4.37, -3.72, -3.72, -3.91, -3.47, -2.8, -2.8, -2.99, -1.99, -1.05, 0.0, 1.05, 2.99, 3.72, 3.55, 4.42, 5.24, 6.01, 7.9, 9.16, 9.17, 10.12, 10.84, 10.92, 10.63, 10.01, 8.38, 7.81, 7.2, 6.88, 5.81, 5.75, 5.94, 6.0, 6.16, 6.45, 6.45, 6.2, 5.73, 5.29, 5.26, 5.81, 5.81, 6.26, 6.64, 7.1, 7.55, 7.55, 7.15, 6.71, 5.81, 5.36, 4.92, 4.92, 4.02, 3.82, 1.4, 0.0, 0.0, 1.6, 1.6, 2.21, 2.97, 4.02, 4.92, 4.77, 1.05, -0.0, -0.0, -0.0, 0.94, 1.96, 0.95, -0.0, -1.84, 5.1, 5.1, 5.38, 5.41, 5.69, 6.23, 6.51, 6.7, 6.56, 6.8, 6.28, 4.69, 7.2, 6.44, 6.44, 5.49, 1.96, 0.0, -1.0, -1.33, -2.69, -3.87, -4.05, -5.46, -5.59, -4.58, -3.72, -2.8, -2.64, -2.82, -2.67, -1.96, -0.95, 0.0, 1.99, 3.4, 3.97, 4.26, 4.96, 5.21, 6.79, 8.29, 9.77, 10.43, 9.92, 9.6, 9.17, 7.97, 7.76, 7.06, 7.15, 7.2, 6.94, 6.64, 5.81, 6.45, 6.45, 6.94, 6.94, 6.64, 6.64, 6.26, 5.36, 5.36, 5.81, 6.26, 6.71, 6.71, 7.15, 7.6, 8.05, 8.0, 7.1, 6.02, 4.98, 4.77, 4.34, 3.82, 2.21, 1.6, 0.0, 0.0, 1.13, 1.13, 0.99, 1.74, 3.22, 4.98, 3.35, -0.0, -0.0, -0.0, -0.0, 1.01, 2.12, 2.16, -0.0, -2.12, 5.1, 5.1, 5.1, 5.71, 6.01, 5.95, 6.23, 6.7, 6.7, 6.56, 6.03, 5.49, 6.79, 5.77, 6.11, 5.24, 2.67, 0.0, 0.0, -1.75, -1.75, -2.97, -3.87, -5.06, -5.21, -5.21, -3.55, -2.64, -1.84, -1.84, -1.84, -2.57, -1.75, -1.4, 0.0, 3.15, 4.2, 5.32, 5.86, 7.25, 8.86, 10.73, 10.47, 9.12, 8.18, 7.9, 6.83, 6.11, 5.58, 5.49, 5.43, 6.6, 6.7, 6.64, 6.71, 6.64, 6.94, 6.94, 7.1, 7.1, 6.71, 6.26, 5.81, 5.81, 5.81, 6.26, 6.71, 6.71, 7.15, 7.6, 8.45, 8.06, 7.2, 5.09, 4.19, 4.4, 4.34, 2.68, 0.0, 0.0, 0.0, 0.0, 0.0, 0.0, 0.98, 2.2, 3.22, 4.02, -0.0, -0.0, -0.0, -0.0, 0.89, 1.84, 3.22, 1.99, -0.0, -2.12, 5.1, 5.1, 5.1, 5.44, 5.71, 6.28, 6.28, 6.23, 6.7, 6.15, 6.41, 5.59, 7.15, 6.91, 5.24, 4.5, 2.54, 0.85, 0.0, -0.85, -1.28, -2.7, -3.87, -5.32, -5.06, -5.32, -4.4, -2.83, -1.47, 0.0, 0.0, -0.82, -1.63, -1.69, 0.0, 1.23, 3.68, 6.3, 7.45, 8.74, 9.55, 9.92, 8.84, 8.42, 8.53, 8.31, 7.06, 5.82, 4.98, 4.4, 4.98, 5.6, 6.02, 6.26, 6.71, 6.64, 7.1, 7.1, 7.1, 7.15, 6.71, 6.26, 5.81, 5.81, 6.26, 6.71, 6.71, 6.71, 7.15, 7.6, 7.6, 5.73, 1.83, 0.96, 0.96, 1.8, 3.35, 2.68, -1.6, -0.99, 0.0, 0.0, 0.0, 0.0, 1.19, 2.95, 3.58, -0.0, -0.89, -0.0, -0.0, -0.0, 1.96, 3.97, 4.74, 2.4, -0.96, -1.84, 5.1, 5.1, 5.36, 5.72, 6.01, 6.01, 6.28, 6.28, 6.23, 6.23, 6.15, 5.59, 7.15, 7.2, 6.91, 4.5, 2.57, 0.93, 0.0, 0.0, -0.89, -1.69, -4.08, -5.2, -5.2, -3.92, -4.08, -2.71, -1.33, 0.0, 0.0, 0.0, 0.85, 0.0, 0.0, 0.8, 2.44, 5.93, 7.45, 7.08, 6.47, 7.13, 7.36, 9.0, 9.66, 9.34, 8.42, 7.35, 6.17, 4.47, 4.02, 4.47, 4.92, 5.36, 6.26, 6.71, 6.71, 7.15, 7.6, 7.6, 6.71, 5.81, 5.81, 6.26, 6.26, 6.71, 6.26, 5.81, 6.64, 6.45, 4.98, -0.0, -4.02, -4.29, -2.2, 0.0, 0.0, 0.0, -1.6, -2.48, 0.0, 0.0, 0.0, 0.0, 1.19, 3.13, -0.0, -0.0, -0.0, -0.0, -0.0, 0.95, 2.82, 4.58, 5.95, 2.16, -1.03, -1.84, 5.1, 5.1, 5.36, 5.72, 5.72, 6.32, 6.32, 6.28, 6.28, 6.23, 5.65, 5.01, 7.15, 7.82, 9.04, 6.01, 3.32, 1.93, 0.82, 0.75, 0.0, -0.85, -2.51, -3.55, -3.6, -2.62, -2.45, -2.54, -2.45, -2.6, -1.33, 0.85, 3.49, 4.4, 3.21, 0.75, 1.76, 3.77, 5.2, 4.1, 3.65, 3.73, 4.81, 7.44, 8.83, 8.22, 8.38, 8.21, 6.94, 6.26, 4.92, 4.02, 4.47, 4.92, 5.81, 6.26, 6.71, 7.15, 7.6, 7.6, 6.71, 5.81, 6.2, 6.2, 6.2, 6.64, 6.2, 5.81, 5.81, 5.4, 3.22, 0.96, -0.96, -3.72, -4.02, -3.2, -1.6, -1.6, -1.8, -2.48, 0.0, 0.0, 0.0, 0.0, 1.13, -0.0, -0.0, -0.0, -0.0, -0.0, -0.0, 1.7, 3.72, 5.84, 5.95, 1.98, -0.0, -1.01, 5.1, 5.1, 5.36, 5.72, 5.72, 6.04, 6.32, 6.32, 6.28, 6.28, 5.65, 4.45, 6.01, 6.79, 8.54, 7.06, 5.38, 2.59, 1.5, 1.69, 1.68, 0.81, 0.0, -1.69, -2.59, -2.49, -1.28, -3.68, -5.08, -4.65, -2.62, 0.0, 3.6, 6.4, 3.88, 1.67, 1.65, 2.53, 3.48, 1.28, 2.45, 3.73, 4.81, 5.08, 5.0, 5.32, 6.18, 6.73, 6.82, 6.64, 4.34, 4.47, 4.47, 5.26, 5.73, 6.2, 6.65, 7.54, 7.6, 7.6, 7.15, 6.71, 6.71, 6.26, 6.2, 6.64, 6.64, 6.26, 5.81, 5.26, 4.8, 3.48, 2.2, -0.0, -1.08, -1.2, -2.68, -1.4, -2.53, -3.72, -1.98, 0.0, 1.4, 1.4, 2.0, 1.2, -0.0, -0.0, -0.0, -0.0, 0.79, 2.68, 4.89, 6.21, 4.74, 1.84, -0.0, -0.0, 4.83, 5.09, 5.09, 5.45, 5.72, 6.34, 6.04, 6.32, 6.32, 6.28, 5.69, 3.84, 5.1, 4.56, 5.21, 6.04, 5.29, 3.25, 1.63, 1.76, 2.6, 2.49, 1.84, 0.89, 0.0, -1.49, -1.49, -4.2, -5.0, -3.6, -1.17, 0.0, 2.45, 4.05, 3.6, 1.84, 0.0, -1.52, -0.0, 0.0, 0.0, 2.62, 4.9, 4.05, 2.83, 2.67, 4.0, 5.59, 5.37, 4.89, 5.21, 4.4, 4.82, 5.26, 5.73, 6.02, 6.88, 7.1, 7.54, 7.54, 7.1, 6.65, 6.64, 6.26, 5.81, 6.26, 7.15, 6.71, 5.81, 5.36, 5.81, 4.85, 4.34, 1.74, 1.13, 1.27, -0.0, -0.0, -2.68, -2.98, -3.16, 0.0, 1.2, 2.97, 3.58, 3.39, 1.98, 1.27, 0.87, 1.98, 2.53, 3.22, 4.22, 5.24, 3.97, 0.89, -0.0, -0.0, 5.09, 5.09, 5.45, 5.72, 5.72, 6.06, 6.34, 6.34, 6.92, 6.32, 5.71, 5.72, 5.41, 3.85, 4.6, 3.51, 4.62, 3.53, 2.62, 2.52, 2.42, 2.33, 2.42, 2.83, 2.4, 3.58, -1.7, -1.32, -1.39, -1.33, 0.0, 0.0, 0.0, 4.92, 6.26, 5.51, -0.0, -1.84, -0.0, -0.0, 1.4, 1.67, 3.36, 4.5, 3.72, 3.0, 2.8, 3.91, 4.43, 4.11, 4.29, 4.29, 4.6, 4.6, 5.2, 6.0, 6.57, 7.12, 7.12, 7.12, 7.12, 6.57, 7.06, 5.51, 5.73, 6.64, 7.55, 7.11, 6.21, 6.2, 6.2, 5.75, 4.92, 3.58, 2.4, 1.9, 1.6, 1.13, -0.0, -2.4, -2.84, -1.6, 0.0, 2.6, 4.02, 4.38, 3.6, 3.6, 2.98, 2.6, 3.2, 3.6, 3.93, 3.91, 3.97, 1.96, 0.94, 0.94, 5.09, 5.09, 5.45, 5.72, 6.06, 6.06, 6.06, 6.34, 6.64, 6.92, 6.32, 6.35, 7.55, 7.51, 7.59, 4.2, 3.82, 2.16, 1.99, 1.99, 2.49, 2.71, 2.09, 2.24, -0.0, 2.2, 3.13, 0.0, 0.0, 0.0, -2.53, -1.27, -0.0, 1.98, 3.22, 3.72, 1.63, -0.0, 1.84, 3.0, 3.22, 2.76, 2.57, 4.66, 5.69, 4.54, 4.11, 4.11, 4.29, 4.29, 4.6, 4.98, 4.98, 4.89, 5.24, 5.49, 6.11, 6.45, 6.11, 6.55, 6.6, 6.21, 5.6, 5.2, 5.94, 6.94, 7.63, 7.12, 6.57, 6.16, 6.45, 5.75, 5.09, 4.38, 3.58, 3.13, 2.24, 2.21, 1.4, -0.0, -1.9, -1.8, 0.0, 1.74, 3.2, 4.02, 4.47, 4.02, 3.58, 3.58, 4.02, 4.34, 4.0, 3.79, 3.91, 3.0, 1.96, 1.96, 5.09, 5.09, 5.72, 5.72, 6.35, 6.35, 6.35, 6.65, 6.64, 6.64, 6.64, 6.67, 7.59, 9.3, 8.96, 7.6, 5.89, 4.84, 4.46, 4.69, 4.59, 2.6, -0.89, -4.29, -4.02, -3.22, -4.11, -1.58, -1.08, -0.0, -0.0, 1.03, 0.96, 1.05, 0.96, 1.99, 2.76, 3.63, 3.91, 5.58, 4.89, 4.02, 1.84, 3.7, 5.03, 4.89, 6.0, 5.21, 4.43, 4.43, 3.79, 4.98, 4.98, 4.54, 4.43, 4.74, 5.49, 4.87, 4.42, 4.58, 4.74, 4.89, 4.11, 4.65, 5.6, 6.94, 7.85, 6.82, 5.37, 5.49, 5.46, 5.82, 4.84, 4.98, 4.4, 3.35, 2.8, 1.79, -0.0, 1.26, 2.24, -1.6, 0.0, 0.0, 1.6, 2.84, 4.0, 4.0, 3.9, 3.9, 3.47, 3.58, 3.9, 4.77, 4.29, 2.99, 2.8, 3.0, 5.09, 5.34, 5.72, 5.72, 6.35, 6.35, 6.35, 6.67, 6.95, 6.95, 6.95, 6.67, 7.59, 9.02, 10.3, 11.12, 10.66, 9.6, 8.79, 7.89, 7.77, 5.88, 0.45, -3.2, -4.9, -4.19, -3.87, -3.7, -2.79, -1.61, -0.96, 0.96, 1.7, 1.05, 1.05, 1.99, 3.48, 4.98, 5.6, 5.6, 5.6, 4.02, 1.98, 2.69, 4.37, 5.06, 5.21, 5.21, 4.74, 3.72, 2.76, 3.79, 4.0, 3.58, 4.92, 5.36, 5.36, 0.0, -1.08, 0.0, 2.68, 3.2, 2.48, 3.22, 4.98, 6.64, 7.6, 6.64, 3.0, 2.82, 3.72, 4.29, 4.19, 2.99, 2.2, 1.27, 0.0, 0.0, 0.0, 1.34, 1.79, 2.24, -2.24, 0.0, 0.0, 1.08, 2.2, 1.8, 2.84, 2.98, 2.98, 3.47, 3.58, 4.47, 4.82, 4.29, 3.49, 2.99, 5.09, 5.72, 5.72, 5.72, 6.08, 6.08, 6.35, 6.67, 6.67, 6.95, 6.95, 7.27, 7.59, 8.78, 9.94, 10.83, 11.62, 11.61, 11.28, 10.96, 11.49, 10.04, 5.57, 0.0, -3.07, -3.39, -3.39, -3.2, -2.79, -2.53, -1.16, -0.0, 1.52, 1.99, 1.99, 2.76, 4.19, 5.94, 6.02, 5.94, 5.51, 4.77, 3.22, 2.69, 3.8, 4.29, 4.6, 6.07, 6.26, 5.51, 5.21, 5.51, 3.48, -0.0, 1.52, 2.4, 5.06, -0.0, -6.71, -4.29, -0.96, 1.84, 4.47, 4.92, 4.47, 5.81, 6.21, 5.15, 4.47, 0.0, 0.0, -1.08, -3.2, -3.58, -3.58, -3.2, -2.53, -3.2, -1.4, 0.0, 0.0, 1.79, -2.24, -1.79, 0.0, 0.0, 0.0, 0.0, 0.0, 1.98, 1.98, 2.84, 2.98, 4.34, 4.47, 5.26, 4.29, 3.22, 5.34, 5.72, 5.46, 5.72, 6.08, 6.08, 6.08, 6.67, 6.97, 6.97, 7.27, 7.27, 7.86, 8.45, 9.37, 10.41, 11.36, 11.41, 11.87, 11.61, 12.18, 12.3, 9.91, 5.31, 1.2, -1.2, -1.49, -1.58, -1.9, -1.95, -1.16, -0.0, 1.52, 1.52, 2.8, 4.29, 5.72, 6.45, 7.15, 5.81, 5.36, 5.81, 4.66, 3.0, 2.66, 3.47, 4.92, 4.84, 4.74, 6.0, 6.51, 4.11, -0.0, -0.0, 1.52, 3.47, 3.47, 0.98, -0.98, -1.63, -0.0, 1.4, 1.63, 3.47, 3.47, 5.06, 2.99, 4.0, 6.01, 4.92, -3.2, -4.89, -4.42, -2.54, -1.84, -2.95, -4.47, -3.82, -3.2, -1.4, -1.9, -2.24, -2.24, -1.79, -0.0, -0.0, -2.8, -2.84, -0.99, 1.13, 1.08, 0.98, 1.8, 2.84, 4.34, 4.82, 4.0, 4.0, 5.34, 5.46, 5.72, 5.72, 6.08, 6.08, 6.35, 6.69, 6.97, 6.97, 7.27, 7.27, 7.86, 8.45, 9.02, 9.86, 10.83, 11.2, 11.41, 11.7, 12.35, 12.64, 11.28, 8.48, 4.6, 1.79, 1.2, -0.0, -0.0, -0.54, -1.0, -0.53, -0.0, 1.52, 1.32, 3.11, 5.49, 6.45, 6.71, 5.81, 4.47, 4.0, 4.92, 3.22, 1.52, 3.58, -0.0, -0.0, 1.41, 3.22, 3.22, 1.84, 1.84, 1.7, 1.7, 3.79, 4.11, 1.84, 1.52, 1.63, 1.98, 2.8, 2.8, 3.0, 3.0, 3.2, 2.99, 6.01, 6.98, 4.74, -0.96, -3.06, -2.7, -0.89, -0.0, -0.0, -2.48, -4.34, -3.35, -2.48, -2.23, -2.53, -2.8, -2.68, -2.24, -0.0, -0.0, -1.9, 0.0, 1.9, 0.0, 0.0, 1.8, 3.6, 3.6, 4.02, 3.58, 3.58, 5.08, 5.46, 5.72, 5.72, 6.08, 6.35, 6.35, 6.69, 6.97, 7.27, 7.27, 7.27, 7.86, 8.45, 9.02, 9.86, 10.3, 10.83, 11.41, 11.7, 12.11, 12.51, 12.18, 9.57, 6.16, 4.47, 4.02, 3.07, 1.7, -0.0, -0.54, -0.53, -0.0, -0.0, 0.82, 2.47, 3.47, 5.21, 5.09, 4.4, 3.48, 2.95, 4.46, 3.58, 3.58, -0.0, -0.0, -0.0, -0.0, -0.0, 1.55, 1.55, 1.7, 2.98, 3.79, 4.46, 4.84, 3.22, 4.43, 4.02, 4.02, 4.43, 4.84, 4.84, 4.84, 3.93, 5.58, 5.72, 4.83, 1.73, -3.15, -3.27, -2.54, -0.89, 0.89, 2.69, 1.03, -1.9, -2.53, -2.84, -3.72, -3.72, -3.72, -2.8, -2.68, -2.24, -0.0, -0.0, 2.24, 1.79, -1.98, -0.88, 0.98, 2.53, 3.35, 2.6, 3.13, 3.13, 5.46, 5.72, 5.72, 6.08, 6.35, 6.35, 6.35, 6.69, 6.69, 7.27, 7.27, 7.59, 7.86, 8.45, 8.45, 9.5, 10.3, 10.83, 11.2, 11.62, 12.3, 12.94, 12.18, 9.7, 7.6, 6.71, 5.79, 4.44, 2.68, 0.89, -0.42, -0.54, -0.54, -0.0, -0.0, -0.0, -0.0, 1.7, 3.22, 3.22, 1.52, 3.0, 3.47, 3.47, 2.49, 2.82, 2.66, 1.7, -0.0, -0.0, -0.0, 2.0, 3.16, 4.4, 5.09, 5.09, 4.84, 4.84, 4.84, 5.21, 5.6, 5.6, 4.84, 5.09, 5.36, 4.34, 4.82, 6.07, 3.2, 1.49, -0.0, -1.98, -0.95, -0.0, 1.84, 2.83, 2.83, 1.98, -0.0, -0.0, -0.0, -3.48, -4.77, -2.68, -1.9, -2.24, 2.24, -0.0, 1.4, -0.0, -2.8, -2.2, 0.0, 1.74, 2.53, 1.4, 1.0, 1.0, 5.46, 5.72, 5.72, 6.35, 6.35, 6.35, 6.35, 6.69, 6.98, 7.59, 7.59, 7.59, 7.86, 8.19, 8.45, 10.58, 8.94, 10.13, 10.16, 10.91, 12.51, 13.41, 12.46, 12.3, 10.68, 11.03, 4.69, 7.2, 4.98, 0.45, -0.6, -0.57, -0.57, -0.57, -0.54, -0.54, -0.57, 0.6, 3.16, 3.22, 3.22, 3.49, 3.47, 3.0, 4.56, 5.37, 5.72, 3.79, 2.0, -0.0, 2.0, 2.0, 4.0, 4.66, 5.09, 5.64, 5.51, 5.51, 4.84, 5.64, 6.07, 6.07, 6.07, 4.82, 4.47, 4.47, 4.92, 5.29, 4.98, 5.06, 4.56, 3.72, 2.8, 1.98, 2.8, 2.64, 2.82, 1.84, 0.89, 0.89, -0.0, -2.82, -4.29, -2.97, -3.13, -3.13, -2.21, -1.58, -0.0, 1.13, -0.0, -2.53, -1.27, 0.0, 2.21, 0.0, 0.0, 0.0, 5.72, 5.72, 5.72, 6.35, 6.35, 6.35, 6.35, 6.98, 6.98, 7.3, 7.59, 7.59, 7.86, 8.19, 8.78, 8.73, 8.73, 8.38, 10.01, 10.28, 12.7, 11.62, 11.41, 11.66, 9.66, 8.38, 6.64, 2.23, 0.57, -0.45, -0.63, -0.0, -0.0, -0.0, -0.0, -0.0, -0.0, 0.63, 1.26, 1.86, 2.5, 2.21, 2.79, 2.84, 4.0, 7.06, 6.23, 4.46, 2.0, 2.0, 2.0, 3.48, 3.48, 3.79, 4.4, 4.98, 6.07, 4.82, 5.29, 6.26, 5.81, 5.64, 5.64, 5.81, 4.47, 4.47, 4.92, 5.81, 6.45, 7.12, 8.06, 8.99, 8.56, 6.45, 3.48, 1.99, 0.96, 1.03, 0.94, 0.89, -0.0, -0.89, -3.0, -4.4, -3.82, -3.13, -2.68, -2.24, -0.0, 1.2, 1.27, -1.4, -3.2, 0.0, 0.0, 2.24, 0.0, 0.0, 5.72, 5.72, 5.72, 6.35, 6.35, 6.35, 6.35, 6.98, 6.98, 7.3, 7.3, 7.86, 8.19, 8.45, 8.78, 9.02, 9.3, 8.38, 7.23, 8.85, 10.63, 8.18, 8.84, 7.81, 7.17, 5.65, 3.16, 0.0, -1.2, -0.89, -0.0, -0.0, -0.0, -0.0, -0.0, -0.0, -0.0, -0.0, 0.6, 1.26, 2.15, 2.5, 2.53, 2.58, 2.86, 6.08, 5.6, 4.4, 2.0, 2.0, 2.2, 3.48, 3.79, 3.79, 4.84, 4.98, 5.94, 5.31, 6.71, 6.26, 5.81, 5.81, 5.81, 5.36, 4.47, 4.34, 4.82, 5.73, 6.45, 7.37, 8.77, 9.39, 8.33, 5.29, 1.9, -0.0, -0.0, -0.0, -0.0, 0.89, 0.84, -0.0, -0.89, -2.53, -3.72, -4.02, -3.2, -2.4, -2.24, -0.0, -0.0, -1.08, -3.2, -2.24, 1.34, 1.34, 0.0, 0.0, 5.72, 5.72, 5.98, 6.35, 6.35, 6.08, 6.63, 6.98, 6.98, 7.3, 7.3, 7.86, 8.19, 8.45, 8.78, 9.37, 9.59, 9.3, 8.78, 8.45, 8.29, 7.9, 7.35, 6.52, 6.01, 6.23, 3.64, 0.0, -0.89, -0.45, 0.0, -0.0, -0.0, -0.0, -0.0, -0.0, -0.0, -0.0, 0.6, 1.26, 1.9, 1.88, 1.84, 1.58, 1.73, 2.86, 5.6, 2.0, -0.0, -0.0, 1.7, 2.98, 3.79, 4.46, 4.84, 5.6, 6.0, 6.45, 6.71, 5.21, 4.4, 4.82, 4.82, 4.47, 4.02, 4.02, 4.47, 4.82, 5.73, 7.06, 8.06, 7.15, 0.0, -3.16, -2.53, -2.21, -1.98, -1.83, -0.76, -0.0, 0.94, 0.84, -0.0, -0.0, -1.03, -2.2, -2.84, -3.35, -3.9, -2.24, -2.21, -1.13, -1.74, -1.58, 1.34, 1.34, 2.24, 2.24, 5.72, 5.72, 5.72, 6.35, 6.08, 6.08, 6.34, 6.7, 6.98, 7.3, 7.3, 7.9, 8.19, 8.45, 8.78, 9.37, 9.94, 9.94, 9.59, 9.59, 9.92, 10.0, 8.6, 6.03, 4.74, 5.06, 3.73, 1.86, 0.45, 0.0, 0.0, 0.45, 0.63, 0.63, -0.0, -0.0, -0.0, -0.0, 0.6, 1.26, 1.24, 1.61, 1.16, 0.57, 0.54, 1.08, 2.2, -0.0, -0.0, -0.0, 1.52, 3.47, 3.22, 4.84, 4.84, 5.21, 5.6, 6.16, 6.71, 3.48, 2.76, 4.29, 4.4, 3.82, 3.58, 4.02, 4.02, 4.47, 5.26, 5.51, 7.06, 2.4, -6.17, -5.81, -4.92, -3.58, -3.2, -2.84, -1.66, -0.0, -0.0, -0.0, -0.0, -0.0, 0.89, -0.0, -0.94, -2.12, -4.11, -5.26, -3.9, -2.21, -1.2, -1.58, 1.34, 1.34, 1.34, 1.34, 5.72, 5.72, 5.72, 6.35, 6.08, 6.34, 6.34, 6.7, 6.7, 6.98, 7.6, 7.9, 7.9, 8.78, 8.78, 9.37, 9.66, 9.94, 9.94, 10.15, 10.58, 11.2, 10.71, 8.72, 5.37, 3.79, 3.48, 2.53, 1.86, 0.63, 0.45, 0.89, 0.89, 0.89, 0.63, 0.6, 0.6, -0.0, 0.6, 0.6, 1.26, 1.24, 0.65, -0.0, -0.57, -0.51, -0.0, -0.0, -0.0, -0.0, 1.32, 3.0, 4.43, 4.43, 4.11, 5.21, 4.98, 5.6, 6.0, 4.4, 0.96, 2.2, 2.53, 3.13, 3.13, 3.58, 4.02, 4.92, 4.47, 5.36, 6.17, -2.6, -6.26, -5.26, -5.81, -5.36, -5.36, -5.09, -4.11, -0.96, -0.0, -0.0, -0.0, 0.79, 0.89, -0.0, -0.0, -0.0, -2.4, -4.77, -4.92, -3.58, -2.4, -1.26, 1.34, 1.34, 1.79, 1.79, 5.72, 5.72, 5.72, 6.35, 6.08, 6.08, 6.34, 6.7, 6.7, 6.7, 7.6, 7.6, 7.9, 8.5, 8.78, 9.37, 9.66, 9.94, 9.94, 10.15, 10.96, 11.5, 11.6, 10.62, 7.6, 4.65, 3.43, 2.84, 2.79, 2.0, 1.7, 1.34, 1.34, 1.34, 1.34, 1.2, 1.26, 0.6, 0.6, 0.6, 0.95, 1.26, 0.57, -0.0, -1.16, -1.61, -1.2, -0.0, -0.0, 0.59, 1.11, 3.0, 3.0, 3.0, 4.74, 5.21, 5.6, 4.98, 6.0, 5.09, 2.84, 0.0, 2.24, 2.24, 2.21, 3.39, 4.34, 4.92, 4.92, 5.73, 6.71, 4.4, -5.36, -6.16, -5.51, -5.29, -4.47, -4.34, -4.84, -2.99, -1.6, -0.82, -0.0, 0.78, 0.89, -0.0, -0.0, 0.89, -0.0, -1.4, -4.02, -3.9, -3.13, -2.24, 1.34, 1.34, 1.79, 1.79, 5.72, 5.72, 5.72, 6.35, 6.08, 6.08, 6.34, 6.7, 6.7, 6.7, 7.32, 7.6, 7.9, 8.5, 8.5, 9.08, 9.94, 9.94, 9.94, 10.15, 10.51, 11.34, 11.5, 10.83, 9.48, 6.56, 3.73, 3.09, 3.35, 3.07, 2.49, 2.6, 2.17, 2.24, 1.79, 1.7, 1.49, 1.26, 0.6, 0.6, 1.2, 1.2, 0.6, -0.0, -0.57, -1.24, -1.0, -0.65, -0.0, -0.0, 0.59, 1.27, 1.63, 2.66, 4.29, 4.74, 5.21, 4.84, 5.21, 6.0, 5.21, 2.84, 2.24, -0.0, 1.4, 2.84, 4.4, 5.26, 5.36, 5.73, 6.2, 7.6, 3.13, -4.0, -6.0, -6.36, -5.36, -4.85, -4.98, -4.74, -3.72, -1.7, -0.0, -0.0, -0.0, -0.0, 0.94, 2.67, 1.96, 0.96, -0.0, -4.0, -3.47, -2.4, -1.79, 1.79, -1.79, -1.79, 5.72, 5.72, 5.72, 6.35, 6.08, 6.08, 6.34, 6.34, 6.7, 6.98, 7.32, 7.32, 7.9, 8.22, 8.5, 9.08, 9.08, 9.94, 9.94, 10.15, 10.51, 11.07, 11.34, 10.96, 9.92, 8.27, 5.86, 4.55, 3.88, 3.7, 3.39, 3.87, 3.98, 3.98, 3.53, 3.13, 2.68, 2.6, 1.86, 1.49, 1.7, 1.7, 2.17, 0.63, -0.0, -0.8, -1.0, -1.0, -0.61, -0.0, -0.0, 0.59, 0.59, 1.11, 2.8, 3.91, 4.43, 3.22, 4.11, 4.54, 6.4, 4.98, 4.4, -0.0, -0.0, 2.48, 4.4, 5.73, 6.26, 6.26, 6.64, 6.71, 7.08, 5.26, 2.24, -4.92, -6.26, -5.81, -5.94, -5.95, -4.74, -2.95, -0.79, -0.0, -0.76, -0.0, 1.96, 2.67, 1.84, 0.94, 0.79, -0.81, -4.77, -3.82, -2.68, -1.79, -1.79, -1.79, 5.72, 5.72, 6.08, 6.35, 6.35, 6.08, 6.34, 6.34, 6.7, 6.7, 7.32, 7.32, 7.9, 8.22, 8.5, 9.08, 9.08, 9.94, 9.94, 10.15, 10.51, 10.7, 10.96, 10.58, 10.3, 8.93, 6.79, 6.15, 5.37, 4.9, 4.6, 4.34, 4.44, 4.44, 3.98, 3.58, 3.58, 3.13, 2.63, 2.17, 2.12, 2.17, 2.6, 1.79, 0.63, -0.89, -2.0, -1.16, -0.59, -0.0, -0.0, 0.59, 0.59, 0.59, 1.27, 3.22, 4.02, 2.8, 2.99, 4.89, 5.94, 6.2, 4.29, 1.84, 1.84, 3.47, 5.73, 6.26, 6.71, 7.15, 7.15, 7.15, 7.15, 6.45, 3.91, -0.0, -4.29, -6.26, -6.71, -6.02, -5.6, -2.3, -0.99, -0.0, -0.0, -0.0, 1.7, 1.84, -0.0, -0.0, 0.94, -0.0, -4.47, -3.95, -2.97, -1.58, -1.58, -1.58, 5.72, 5.72, 6.08, 6.35, 6.35, 6.08, 6.34, 6.34, 6.7, 6.7, 6.98, 7.32, 7.61, 8.22, 8.5, 8.82, 9.08, 9.59, 9.94, 9.94, 10.51, 10.7, 10.96, 10.58, 10.13, 8.84, 7.44, 6.23, 5.86, 5.37, 4.9, 4.8, 4.89, 4.89, 4.44, 4.02, 4.02, 3.58, 3.13, 2.63, 2.17, 2.17, 2.17, 3.82, 3.13, 0.0, -0.89, -2.23, -1.23, -0.0, -0.0, 0.59, 0.59, 0.59, 1.13, 1.13, 2.8, 3.0, 3.91, 4.89, 5.94, 5.73, 4.11, 2.82, 3.55, 4.89, 5.94, 6.26, 6.45, 6.94, 7.1, 7.15, 6.71, 4.34, -0.0, -0.95, -0.95, -3.48, -5.81, -5.81, -5.51, -2.15, -0.95, -0.0, -0.0, 0.87, 0.73, -0.0, -0.0, -0.0, 0.95, 1.03, -0.0, -4.02, -3.39, -2.4, -1.2, -1.2, 5.72, 5.72, 6.08, 6.35, 6.35, 6.35, 6.08, 6.34, 6.7, 6.7, 6.7, 7.32, 7.32, 7.93, 8.5, 8.82, 9.08, 9.08, 9.94, 9.94, 10.51, 10.7, 10.96, 10.58, 10.3, 9.21, 7.44, 6.23, 5.59, 5.37, 5.31, 5.09, 5.24, 4.89, 4.89, 4.44, 4.44, 4.02, 3.58, 3.13, 2.68, 2.17, 2.17, 2.15, 2.68, 4.47, 2.24, -1.11, -0.55, -0.0, -0.0, 0.51, 0.59, 0.59, 0.59, 1.13, 1.13, 1.8, 3.91, 3.63, 4.98, 4.98, 4.74, 3.55, 4.74, 5.58, 6.0, 7.15, 5.6, 5.49, 6.21, 6.64, 5.81, -0.0, -4.29, -2.99, -0.89, -0.0, -3.72, -5.81, -4.92, -1.7, -1.2, -0.0, -0.0, 0.99, -0.0, -0.0, -0.0, -0.0, 1.83, 2.76, 0.88, -3.58, -3.39, -2.4, -1.2, -1.2, 6.08, 6.08, 6.08, 6.35, 6.35, 6.35, 6.35, 6.34, 6.7, 6.7, 6.7, 6.98, 7.32, 7.93, 8.22, 8.5, 8.82, 9.08, 9.59, 9.94, 10.15, 10.51, 10.96, 10.58, 10.3, 9.21, 8.0, 6.23, 5.59, 5.49, 5.6, 5.4, 5.57, 5.26, 5.24, 4.89, 4.44, 4.44, 3.98, 3.58, 3.13, 2.68, 2.24, 2.0, 2.4, 3.9, 2.53, -0.0, -0.0, 0.51, 0.61, 0.61, 0.61, 0.59, 0.59, 1.13, 1.13, 1.84, 1.84, 3.79, 4.98, 5.58, 5.84, 5.95, 5.58, 5.6, 5.51, 6.51, 5.81, 5.58, 4.29, 5.36, 5.94, 3.2, -4.4, -5.37, -1.99, -0.96, -1.99, -5.26, -4.47, -3.58, -1.34, -0.45, 0.0, 0.8, 1.7, 2.98, 1.98, 0.99, 0.87, 2.68, 2.0, -1.2, -3.13, -2.4, -1.58, -1.58, 6.08, 6.08, 6.08, 6.35, 6.35, 6.35, 6.35, 6.34, 6.7, 6.7, 6.7, 6.98, 7.32, 7.93, 8.22, 8.5, 8.82, 9.08, 9.08, 9.66, 9.94, 10.15, 10.51, 10.41, 10.3, 9.38, 8.0, 6.23, 7.68, 5.59, 5.49, 5.37, 5.81, 5.57, 5.57, 5.24, 4.8, 4.34, 4.44, 3.98, 3.58, 2.68, 2.68, 2.17, 1.7, 1.26, 1.2, 0.61, 0.61, 0.53, 0.53, 0.53, 0.61, 0.61, 0.61, 1.13, 1.13, 1.84, 1.61, 2.53, 4.98, 5.82, 6.6, 6.28, 6.45, 6.2, 5.81, 7.15, 6.51, 6.26, 4.77, 4.89, 7.28, 6.51, -2.53, -5.51, -3.93, -2.95, -3.22, -4.57, -4.92, -4.38, -3.2, -1.2, 0.0, 0.89, 1.79, 2.68, 4.82, 1.2, -0.0, 1.13, 1.8, -0.0, -3.13, -2.97, -2.68, -2.68, 6.35, 6.35, 6.08, 6.35, 6.35, 6.35, 6.35, 6.35, 6.7, 6.7, 6.7, 6.98, 6.98, 7.32, 8.22, 8.5, 8.5, 8.82, 9.08, 9.42, 9.94, 9.94, 10.15, 10.41, 10.04, 9.76, 8.08, 6.52, 5.95, 8.31, 4.74, 4.37, 5.08, 5.81, 5.4, 5.57, 5.09, 4.8, 4.34, 4.43, 3.54, 3.13, 2.68, 2.24, 2.24, 1.7, 0.99, 0.71, 0.54, 0.65, 0.65, 0.65, 0.65, 0.53, 0.61, 1.16, 1.16, 1.6, 1.84, 2.53, 3.72, 6.16, 7.06, 6.45, 6.2, 6.26, 5.81, 6.26, 7.6, 7.45, 6.6, 6.18, 7.12, 6.88, 1.4, -5.7, -5.26, -4.57, -4.57, -4.82, -4.47, -4.38, -3.6, -2.6, 0.0, 0.63, 1.7, 2.91, 5.36, 1.4, -1.6, -0.0, 1.13, 0.99, -2.4, -4.02, -3.13, -3.13, 6.35, 6.35, 6.08, 6.08, 6.35, 6.35, 6.35, 6.35, 6.7, 6.7, 6.7, 6.7, 6.98, 7.32, 7.93, 8.22, 8.5, 8.5, 9.08, 9.08, 9.66, 9.94, 9.94, 10.23, 10.04, 9.76, 8.29, 7.21, 6.87, 5.88, 4.37, 3.73, 3.73, 5.08, 5.4, 5.4, 5.51, 5.09, 4.6, 4.34, 3.87, 3.53, 3.13, 2.68, 2.68, 2.24, 1.7, 1.26, 0.71, 0.54, 0.54, 1.0, 1.2, 1.2, 1.0, 1.16, 1.16, 1.84, 1.84, 2.51, 5.72, 5.72, 6.4, 6.64, 5.73, 5.73, 5.73, 5.81, 7.15, 7.45, 6.21, 7.47, 7.89, 7.08, 4.09, -4.24, -5.81, -5.81, -4.92, -4.47, -3.58, -3.47, -3.39, -2.97, -1.2, 0.0, 1.58, 2.68, 4.92, 1.4, -2.53, -1.4, -0.0, 0.99, -1.2, -3.58, -3.13, -3.13, 6.35, 6.35, 6.35, 6.08, 6.35, 6.35, 6.35, 6.69, 6.98, 6.7, 6.7, 6.7, 6.98, 7.32, 7.32, 8.22, 8.22, 8.5, 9.08, 9.08, 9.32, 9.94, 9.59, 9.86, 9.86, 9.76, 8.65, 7.44, 6.52, 6.15, 5.21, 4.17, 3.64, 4.17, 4.69, 5.4, 5.4, 4.9, 5.09, 4.6, 4.34, 3.98, 3.58, 3.13, 3.13, 2.68, 1.79, 1.6, 1.26, 0.71, 1.24, 1.24, 1.0, 1.2, 1.2, 1.16, 1.16, 1.84, 1.6, 2.84, 3.43, 5.72, 6.4, 6.23, 6.51, 6.07, 5.4, 5.73, 6.2, 6.64, 6.02, 7.45, 7.45, 6.94, 6.45, 2.68, -4.4, -5.94, -5.29, -4.92, -3.58, -2.68, -2.97, -2.97, -2.4, 0.0, 1.34, 4.6, 3.58, -0.0, -2.53, -3.2, -1.9, -0.0, -1.2, -2.8, -3.13, -3.13, 6.35, 6.35, 6.35, 6.35, 6.35, 6.35, 6.69, 6.69, 6.98, 6.7, 6.7, 6.7, 6.98, 6.98, 7.32, 7.32, 8.22, 8.5, 8.82, 9.08, 9.08, 9.59, 9.59, 9.59, 9.86, 9.5, 9.21, 8.0, 6.28, 5.88, 5.86, 5.37, 4.55, 4.4, 4.8, 5.31, 5.4, 5.31, 4.9, 4.6, 4.19, 3.87, 3.98, 3.53, 3.39, 2.4, 1.7, 1.34, 1.2, 1.26, 1.24, 1.24, 1.24, 1.2, 1.2, 1.4, 1.16, 1.84, 1.6, 2.86, 3.43, 3.64, 6.64, 6.02, 6.02, 7.01, 5.51, 6.2, 6.26, 6.26, 7.6, 6.64, 8.38, 7.37, 7.54, 5.36, 0.0, -4.34, -5.36, -4.47, -2.97, -2.4, -2.4, -2.68, -2.4, 0.0, 1.9, 3.58, 2.8, -0.0, -2.53, -3.82, -3.13, -1.9, -1.0, -1.9, -2.97, -2.97, 6.35, 6.35, 6.35, 6.35, 6.35, 6.69, 6.69, 6.69, 6.98, 6.98, 6.7, 6.7, 6.98, 6.98, 7.32, 7.32, 7.93, 8.5, 8.82, 9.08, 9.08, 9.37, 9.37, 9.02, 9.5, 9.5, 9.21, 7.73, 6.52, 5.88, 5.93, 5.49, 5.6, 4.9, 4.9, 4.9, 5.31, 5.31, 4.9, 4.9, 4.6, 4.34, 3.98, 5.29, 2.0, 1.24, 1.26, 1.34, 1.34, 1.26, 0.99, 1.24, 1.24, 1.24, 1.2, 1.2, 1.61, 1.84, 2.23, 2.23, 3.16, 3.78, 7.01, 6.2, 6.45, 7.01, 5.73, 6.26, 6.26, 6.26, 6.26, 6.64, 7.94, 8.49, 6.71, 4.82, 2.68, -2.84, -5.26, -4.47, -2.98, -2.8, -2.4, -2.68, -2.24, 1.79, -0.0, 2.4, 1.4, -0.0, -2.84, -3.82, -3.58, -2.8, -1.9, -1.9, -0.99, -1.74, 6.35, 6.35, 6.35, 6.35, 6.67, 6.69, 6.69, 6.69, 6.98, 6.98, 6.7, 6.7, 6.98, 6.98, 7.32, 7.32, 7.61, 8.22, 8.5, 8.82, 9.08, 9.37, 9.02, 9.02, 9.3, 9.3, 9.21, 8.08, 6.87, 6.23, 5.93, 5.86, 5.75, 5.6, 5.4, 5.4, 5.4, 5.31, 5.08, 4.9, 4.4, 4.6, 4.34, 5.73, 2.0, 0.99, 0.57, 0.63, 0.89, 1.2, 1.26, 1.24, 1.24, 1.24, 1.61, 1.61, 1.88, 1.61, 1.8, 2.23, 3.16, 3.78, 6.64, 5.73, 6.2, 6.71, 6.26, 5.81, 5.81, 6.26, 6.26, 7.15, 7.6, 7.15, 5.26, 0.0, -2.68, -3.93, -4.66, -4.47, -3.47, -2.97, -3.13, -2.68, -2.24, -0.0, 1.34, 2.24, -0.0, -0.0, -2.53, -3.35, -3.82, -3.13, -2.68, -2.0, -1.2, -0.99, 6.35, 6.35, 6.35, 6.35, 6.67, 6.97, 6.69, 6.69, 6.98, 6.98, 6.98, 6.7, 6.98, 6.98, 7.32, 7.32, 7.61, 7.93, 8.5, 8.5, 8.5, 9.02, 9.02, 9.02, 9.3, 9.3, 9.21, 8.08, 6.87, 6.23, 5.65, 5.59, 5.86, 6.28, 6.1, 6.1, 5.81, 5.4, 5.08, 4.69, 4.55, 4.4, 4.19, 4.43, 4.98, 0.99, 0.0, 0.0, 0.45, 1.2, 1.26, 1.26, 1.24, 1.58, 1.9, 1.61, 1.88, 1.84, 1.6, 2.23, 2.84, 3.43, 4.11, 6.58, 6.26, 6.26, 5.36, 5.73, 5.51, 6.17, 6.2, 6.26, 7.6, 7.6, 5.81, -1.6, -4.77, -5.36, -4.92, -4.02, -3.47, -3.47, -3.58, -2.68, -1.79, 1.34, 1.26, 2.24, -0.0, -1.4, -2.53, -3.82, -4.02, -3.13, -2.24, -2.68, -2.24, -1.2, 6.35, 6.35, 6.35, 6.35, 6.67, 6.97, 6.69, 6.69, 6.98, 6.98, 6.98, 6.7, 6.98, 6.98, 7.32, 7.32, 7.61, 7.61, 8.22, 8.5, 8.5, 8.78, 8.78, 9.02, 9.3, 9.3, 8.94, 8.08, 6.92, 5.95, 5.65, 5.59, 5.59, 6.03, 6.28, 6.4, 6.1, 5.6, 5.08, 5.08, 4.55, 4.55, 4.27, 4.19, 4.19, 3.93, 0.0, 0.45, -0.0, 1.2, 1.6, 1.49, 1.86, 1.58, 1.58, 1.9, 1.61, 1.61, 1.84, 1.84, 2.51, 2.84, 5.36, 6.07, 6.07, 6.07, 5.29, 6.07, 4.98, 6.17, 6.26, 6.26, 7.45, 7.6, 6.51, 4.02, -4.47, -5.36, -5.26, -3.9, -3.39, -3.9, -3.9, -2.97, 0.0, 0.0, 2.24, 2.24, -0.0, -0.0, -3.2, -3.82, -4.47, -3.13, -2.24, -2.24, -2.24, -2.24, 6.35, 6.35, 6.35, 6.35, 6.67, 6.97, 6.69, 6.69, 6.98, 6.98, 6.98, 6.7, 6.98, 6.98, 7.32, 7.32, 7.61, 7.61, 7.93, 8.22, 8.5, 8.78, 8.78, 8.45, 8.94, 8.94, 8.73, 8.08, 6.92, 6.28, 5.65, 5.59, 5.59, 6.15, 6.56, 6.56, 6.8, 6.28, 5.6, 5.08, 5.08, 4.55, 4.17, 4.4, 5.31, 4.34, 1.79, 1.2, 1.2, 1.6, 1.7, 1.7, 1.86, 1.86, 1.58, 1.9, 1.88, 1.61, 1.61, 1.84, 2.23, 2.84, 3.35, 6.0, 5.6, 5.6, 6.07, 5.64, 5.26, 5.81, 6.71, 6.64, 7.45, 6.26, 7.6, 6.4, 2.48, -2.53, -4.82, -4.8, -3.2, -3.47, -3.9, -2.97, 0.0, 2.24, 1.9, -0.0, -0.0, -0.0, -1.6, -3.2, -4.02, -3.39, 2.24, 1.79, 1.79, 1.79, 6.35, 6.35, 6.35, 6.67, 6.67, 6.97, 6.69, 6.69, 6.98, 6.98, 6.98, 6.98, 6.98, 6.98, 6.98, 7.32, 7.32, 7.61, 7.61, 8.22, 8.22, 8.45, 8.45, 8.45, 8.73, 8.73, 8.73, 8.15, 7.17, 6.28, 5.37, 5.32, 5.59, 6.15, 6.51, 6.95, 6.95, 6.8, 5.89, 5.21, 4.84, 4.65, 4.55, 4.55, 5.31, 5.09, 4.44, 3.13, 2.17, 1.7, 1.7, 2.12, 2.12, 1.86, 1.86, 1.9, 1.9, 1.88, 1.61, 1.61, 1.84, 2.53, 3.14, 6.0, 5.6, 6.0, 6.0, 6.07, 5.36, 5.81, 6.71, 7.08, 6.94, 7.1, 6.71, 6.57, 6.18, 4.74, -0.0, -3.82, -4.98, -3.95, -3.47, -2.97, -1.79, -0.0, 1.13, 1.13, 1.6, -0.0, -0.0, -1.6, -2.8, -1.9, 0.0, 2.24, 2.24, 2.24, 6.35, 6.35, 6.35, 6.67, 6.67, 6.97, 6.97, 6.69, 6.98, 6.98, 6.98, 6.98, 6.98, 6.98, 7.32, 7.32, 7.32, 7.61, 7.61, 8.22, 8.22, 7.9, 7.86, 8.15, 8.38, 8.73, 8.73, 8.15, 7.51, 6.32, 5.69, 5.65, 5.65, 5.65, 6.23, 7.07, 7.23, 6.95, 6.41, 5.75, 5.21, 4.84, 4.65, 4.65, 5.08, 4.9, 4.8, 3.98, 3.13, 2.68, 2.24, 2.24, 2.17, 2.17, 1.86, 2.15, 2.15, 1.61, 1.88, 1.16, 1.61, 2.53, 2.79, 3.35, 5.72, 6.0, 6.58, 5.73, 5.81, 5.81, 7.45, 6.45, 6.94, 7.1, 7.15, 6.88, 6.6, 6.99, 6.18, 3.16, -3.82, -5.09, -4.15, -2.97, -2.68, -1.58, -0.0, 1.6, 1.13, -0.0, -0.0, -0.0, -2.68, -1.9, 0.0, 0.0, 0.0, 0.0, 6.35, 6.35, 6.35, 6.67, 6.67, 6.97, 6.69, 6.69, 6.98, 6.98, 7.3, 7.3, 7.32, 7.32, 7.32, 7.32, 7.32, 7.32, 7.61, 7.32, 7.9, 7.9, 7.86, 8.15, 8.38, 8.38, 8.38, 7.81, 6.92, 6.32, 5.71, 5.69, 5.69, 6.23, 6.23, 6.79, 7.35, 7.23, 6.7, 6.03, 5.49, 4.94, 4.94, 4.65, 4.84, 5.08, 4.8, 4.19, 3.87, 3.13, 2.68, 2.68, 2.24, 2.24, 2.17, 2.4, 2.15, 1.9, 1.61, 1.2, 1.4, 1.88, 2.53, 3.35, 4.27, 7.01, 6.71, 5.81, 6.26, 6.64, 6.88, 6.88, 7.1, 7.15, 7.1, 7.37, 7.37, 6.94, 6.57, 6.21, 3.2, -4.77, -5.73, -4.02, -2.97, -2.4, -0.0, -0.0, -0.0, -0.0, 2.68, 2.24, 0.0, 0.0, 0.0, 0.0, 0.0, 0.0, 6.06, 6.06, 6.35, 6.67, 6.67, 6.97, 6.69, 6.69, 6.98, 7.3, 7.3, 7.6, 7.32, 7.32, 7.32, 7.32, 7.32, 7.32, 7.32, 7.32, 7.9, 7.9, 7.86, 8.15, 8.73, 8.73, 8.38, 7.81, 6.92, 6.32, 5.71, 5.71, 6.01, 5.69, 6.28, 6.52, 7.09, 7.35, 7.23, 6.7, 5.86, 5.29, 4.94, 4.94, 4.84, 5.08, 4.8, 4.4, 4.11, 3.39, 3.09, 2.68, 2.68, 2.68, 2.17, 2.4, 2.4, 2.4, 1.9, 1.2, 1.2, 1.88, 2.21, 3.14, 3.72, 7.01, 6.71, 6.71, 6.71, 6.64, 7.1, 7.1, 7.15, 7.15, 7.54, 7.54, 7.54, 7.1, 6.88, 7.37, 5.4, -3.13, -6.26, -4.92, -3.6, -2.53, -1.2, -0.0, -0.0, 2.24, 2.24, 1.9, 0.0, 0.0, 0.0, 0.0, 0.0, 0.0, 6.06, 6.06, 6.35, 6.35, 6.67, 6.97, 6.69, 6.98, 6.98, 7.3, 7.3, 7.6, 7.32, 7.32, 7.32, 7.32, 6.98, 7.32, 7.32, 7.32, 7.32, 7.6, 7.86, 7.86, 8.45, 8.73, 8.38, 7.81, 6.92, 6.32, 5.71, 6.01, 5.71, 6.28, 6.28, 6.52, 6.87, 7.44, 7.35, 6.79, 6.15, 5.59, 5.29, 4.94, 5.21, 4.84, 4.55, 4.4, 3.88, 3.7, 3.39, 3.09, 3.07, 2.68, 2.24, 2.6, 2.4, 2.4, 2.23, 1.24, 1.2, 1.2, 1.88, 2.53, 3.14, 6.07, 6.26, 6.26, 6.71, 6.26, 7.15, 7.15, 7.15, 7.6, 7.15, 7.15, 7.15, 7.1, 6.94, 7.37, 6.64, 0.0, -5.94, -5.36, -4.57, -2.84, -0.99, -0.0, 1.79, 1.34, 2.24, 1.9, 0.0, 0.0, 0.0, 0.0, 0.0, 0.0, 6.06, 6.06, 6.35, 6.35, 6.67, 6.97, 6.69, 6.98, 6.98, 7.3, 7.3, 7.32, 7.32, 7.32, 7.32, 7.32, 6.98, 6.98, 6.98, 6.98, 7.3, 7.3, 7.59, 7.86, 8.19, 8.45, 8.73, 7.81, 6.95, 6.32, 5.71, 6.01, 5.72, 5.71, 6.28, 6.28, 6.87, 6.87, 7.09, 6.79, 6.23, 5.93, 5.01, 5.29, 4.94, 4.84, 4.55, 4.55, 4.27, 3.88, 3.7, 3.82, 3.39, 3.07, 2.68, 2.6, 2.6, 2.6, 2.4, 1.58, 1.24, 1.2, 1.61, 2.21, 2.5, 4.57, 5.51, 5.73, 5.81, 6.64, 6.94, 7.37, 7.15, 7.15, 7.15, 7.15, 7.1, 7.1, 7.37, 7.37, 6.94, 4.47, -3.16, -6.71, -5.34, -3.58, -0.85, -0.0, 1.34, 1.79, 0.0, 2.68, 2.68, 0.0, 0.0, 0.0, 0.0, 0.0, 6.06, 6.06, 6.35, 6.35, 6.67, 6.97, 6.69, 6.98, 6.98, 7.3, 7.6, 7.32, 7.32, 7.32, 6.98, 6.98, 6.98, 6.98, 6.7, 6.7, 6.98, 7.3, 7.59, 8.19, 8.19, 8.45, 7.86, 7.81, 6.95, 6.32, 5.71, 5.71, 5.44, 5.71, 6.01, 6.28, 6.52, 6.87, 6.87, 6.87, 6.57, 5.65, 5.59, 5.01, 5.29, 5.21, 4.65, 4.55, 4.4, 4.27, 3.88, 4.11, 3.82, 3.07, 2.68, 2.68, 2.6, 2.6, 2.6, 1.86, 1.24, 0.54, 1.2, 1.9, 2.15, 4.0, 4.98, 5.51, 5.81, 6.02, 6.57, 6.6, 6.8, 7.54, 7.15, 7.15, 7.1, 6.94, 7.37, 7.37, 7.1, 6.26, 2.68, -5.4, -6.57, -1.98, -0.99, -0.0, -0.0, 1.34, -1.58, 0.0, 1.26, 1.9, 0.0, 0.0, 0.0, 0.0, 6.06, 6.06, 6.35, 6.35, 6.67, 6.97, 6.69, 6.98, 6.98, 7.3, 7.32, 7.32, 7.32, 7.32, 6.98, 6.98, 6.98, 6.7, 6.7, 6.7, 6.98, 6.98, 7.3, 7.6, 8.19, 8.19, 7.86, 7.55, 6.95, 6.32, 5.71, 5.71, 5.44, 5.71, 5.71, 6.28, 6.28, 6.52, 6.87, 6.87, 6.52, 6.23, 5.65, 5.01, 5.01, 4.94, 4.65, 4.55, 4.55, 4.4, 4.27, 3.88, 4.11, 3.39, 3.07, 2.68, 2.68, 2.68, 2.68, 2.17, 1.26, 0.71, 1.24, 1.24, 2.23, 2.91, 4.82, 5.26, 5.29, 5.81, 5.94, 6.21, 6.18, 6.18, 7.54, 7.15, 7.15, 7.1, 7.54, 7.54, 7.54, 7.15, 2.84, -4.11, -4.22, -2.84, -1.74, -0.0, -0.0, -0.0, -1.79, -1.2, 0.0, 1.4, 0.0, 0.0, 0.0, 0.0, 6.06, 6.06, 6.35, 6.35, 6.67, 6.97, 6.69, 6.98, 6.98, 7.6, 7.32, 7.32, 7.32, 6.98, 6.98, 6.98, 6.98, 6.7, 6.7, 6.7, 6.7, 6.7, 7.3, 7.6, 7.9, 8.19, 7.86, 7.55, 6.95, 6.32, 5.71, 5.71, 5.44, 5.71, 5.71, 6.01, 6.28, 6.52, 6.87, 6.52, 6.28, 5.95, 5.65, 5.35, 5.01, 5.29, 4.94, 4.65, 4.55, 4.55, 4.17, 4.27, 3.88, 3.39, 3.07, 2.68, 2.68, 2.68, 2.68, 2.24, 1.6, 0.8, 0.71, 1.24, 1.86, 2.4, 4.0, 4.0, 5.26, 6.17, 6.26, 6.2, 5.6, 4.89, 6.21, 6.88, 7.15, 7.15, 7.6, 7.6, 7.6, 7.1, 2.84, -6.16, -4.22, -2.84, -2.53, -2.21, -0.0, -0.0, 1.79, -1.2, 0.0, 0.0, 0.0, 0.0, 0.0, 0.0, 6.06, 6.06, 6.35, 6.35, 6.67, 6.97, 6.69, 6.98, 6.98, 7.6, 7.32, 7.32, 7.32, 6.98, 6.98, 6.98, 6.98, 6.7, 6.7, 6.7, 6.98, 6.98, 6.98, 7.6, 7.6, 7.9, 7.86, 7.27, 6.95, 6.04, 5.71, 5.71, 5.1, 5.44, 5.71, 5.71, 6.28, 6.28, 6.52, 6.52, 6.28, 5.95, 5.65, 5.06, 5.35, 5.01, 4.94, 4.65, 4.65, 4.55, 4.55, 4.17, 3.88, 3.6, 3.39, 3.07, 2.68, 2.68, 2.68, 2.68, 1.79, 0.95, 0.8, 0.8, 1.26, 1.86, 2.4, 2.49, 5.26, 6.17, 6.71, 6.71, 6.2, 5.81, 5.36, 5.94, 6.64, 7.15, 7.6, 7.15, 7.15, 6.88, -4.98, -7.1, -4.85, -4.0, -3.22, -2.98, -1.4, -0.0, -1.79, -1.58, -1.4, 0.0, 0.0, -1.9, -1.9, -1.9, 6.06, 6.06, 6.35, 6.35, 6.35, 6.97, 6.69, 6.98, 6.98, 7.3, 7.32, 6.98, 6.98, 6.98, 6.98, 6.98, 6.98, 6.7, 6.7, 6.7, 6.98, 6.98, 6.98, 7.32, 7.6, 7.6, 7.59, 7.27, 6.95, 6.34, 5.72, 5.44, 5.1, 5.44, 5.71, 5.71, 6.28, 6.28, 6.28, 6.28, 6.28, 6.28, 5.69, 5.65, 5.06, 5.35, 5.01, 4.94, 4.65, 4.65, 4.55, 4.55, 3.88, 3.35, 3.2, 2.91, 2.63, 2.68, 2.68, 2.68, 2.24, 1.2, 0.6, 0.6, 1.26, 1.6, 2.12, 2.6, 4.82, 5.81, 6.71, 7.1, 6.94, 6.94, 6.45, 6.71, 6.64, 7.15, 7.15, 6.71, 6.45, 6.21, -1.8, -6.71, -6.64, -4.98, -3.93, -4.0, -2.98, -1.9, -1.58, -2.24, -1.9, -1.4, -1.4, -1.9, -1.9, -1.9, 6.06, 6.06, 6.35, 6.35, 6.35, 6.69, 6.69, 6.98, 6.98, 7.3, 7.3, 6.98, 6.98, 6.98, 6.98, 6.98, 6.98, 6.7, 6.34, 6.61, 6.98, 6.98, 6.98, 6.98, 7.6, 7.3, 7.3, 6.97, 6.67, 6.34, 5.72, 5.72, 5.72, 5.72, 5.71, 5.71, 6.01, 6.28, 6.28, 6.28, 6.28, 6.28, 5.69, 5.69, 5.65, 5.65, 5.35, 5.01, 4.71, 4.65, 4.65, 4.29, 4.0, 3.72, 3.6, 3.32, 3.07, 3.07, 2.63, 2.63, 2.68, 1.79, 1.2, 0.95, 0.6, 1.2, 1.7, 2.12, 2.63, 5.81, 6.71, 7.1, 7.1, 7.1, 7.1, 7.15, 7.1, 7.15, 7.15, 6.64, 6.16, 6.18, 2.99, -4.29, -7.1, -6.17, -4.57, -4.57, -3.6, -2.97, -2.24, -2.24, -1.58, -2.21, -2.8, -2.8, -2.8, -2.8, 6.06, 6.06, 6.35, 6.35, 6.35, 6.69, 6.69, 6.98, 6.98, 6.98, 7.3, 6.98, 6.7, 6.98, 6.98, 6.98, 6.98, 6.98, 6.61, 6.61, 6.61, 6.61, 6.98, 6.98, 6.98, 6.98, 6.98, 6.97, 6.35, 5.72, 5.45, 5.45, 5.72, 5.72, 5.44, 5.71, 5.71, 6.28, 6.28, 6.28, 6.01, 6.01, 5.69, 5.69, 5.69, 5.65, 5.06, 5.01, 5.01, 4.71, 4.37, 4.07, 4.0, 3.64, 3.35, 3.2, 2.91, 3.07, 3.07, 3.07, 2.63, 2.24, 1.34, 0.63, 0.95, 1.2, 1.6, 1.79, 2.68, 5.36, 6.2, 6.64, 6.64, 6.64, 7.15, 7.15, 7.08, 7.1, 7.15, 6.64, 5.95, 6.6, 5.06, -1.05, -6.45, -6.64, -5.31, -5.09, -4.82, -3.47, -2.68, -2.4, -2.4, -2.8, -3.2, -2.8, -2.8, -2.8, 6.06, 6.06, 6.35, 6.35, 6.35, 6.69, 6.98, 6.69, 6.69, 6.98, 6.98, 6.98, 6.7, 6.98, 6.98, 6.98, 6.98, 6.98, 6.61, 6.61, 6.61, 6.33, 6.61, 6.98, 6.7, 6.7, 6.69, 6.64, 6.35, 5.72, 5.72, 5.45, 5.45, 5.72, 5.44, 5.71, 5.71, 6.01, 6.28, 6.32, 6.32, 5.71, 5.69, 5.69, 5.69, 5.37, 5.37, 5.06, 5.01, 4.74, 4.71, 4.65, 4.07, 4.0, 3.72, 3.6, 3.39, 3.32, 2.91, 2.91, 3.07, 2.63, 2.24, 1.34, 0.63, 0.95, 1.2, 1.79, 2.68, 4.92, 5.73, 5.94, 5.94, 6.02, 6.64, 6.71, 6.71, 6.71, 6.64, 6.45, 6.57, 7.12, 5.95, -0.0, -6.0, -6.64, -6.2, -5.75, -5.29, -4.02, -3.13, -2.4, -2.21, -2.53, -2.53, -3.2, -3.2, -3.2, 5.72, 5.72, 6.35, 6.35, 6.35, 6.69, 6.69, 6.69, 6.69, 6.98, 6.98, 6.7, 6.7, 6.98, 6.98, 6.98, 6.98, 6.61, 6.33, 6.33, 6.33, 6.33, 6.33, 6.33, 6.7, 6.7, 6.35, 6.08, 6.0, 5.72, 5.72, 5.72, 5.45, 5.72, 5.44, 5.44, 5.71, 5.71, 6.32, 6.32, 6.32, 6.01, 5.71, 5.69, 5.38, 5.08, 5.08, 5.08, 5.06, 4.45, 4.74, 4.37, 4.07, 3.73, 3.43, 3.35, 3.6, 3.39, 3.39, 3.32, 2.91, 3.07, 2.63, 1.79, 1.34, 0.95, 1.34, 1.79, 2.24, 2.63, 3.39, 5.51, 5.94, 5.94, 6.64, 6.64, 7.1, 7.1, 6.64, 6.88, 6.94, 7.37, 6.57, -0.0, -6.0, -7.15, -6.71, -6.26, -5.81, -4.92, -4.02, -2.97, -2.4, -3.2, -3.2, -3.2, -3.2, -3.2, 5.72, 5.72, 6.35, 6.08, 6.35, 6.35, 6.35, 6.69, 6.69, 6.98, 6.7, 6.7, 6.7, 6.7, 6.7, 6.98, 6.61, 6.33, 6.33, 6.33, 6.33, 6.08, 6.08, 6.08, 6.34, 6.34, 6.35, 5.72, 5.72, 5.72, 5.46, 5.46, 5.72, 5.45, 5.72, 5.44, 5.71, 6.01, 6.32, 6.32, 6.32, 6.32, 5.71, 5.69, 5.38, 5.38, 5.38, 5.08, 5.08, 5.06, 4.45, 4.71, 4.11, 4.07, 4.0, 3.72, 3.6, 3.6, 3.2, 3.2, 3.32, 2.91, 3.07, 2.68, 1.79, 1.34, 0.89, 1.34, 1.79, 2.24, 2.63, 4.82, 4.98, 6.51, 6.17, 6.64, 7.1, 7.1, 7.15, 7.15, 7.1, 7.1, 6.57, 1.99, -4.98, -7.15, -7.15, -7.15, -6.71, -5.75, -4.85, -3.47, -2.97, -2.4, -2.8, -2.4, -2.4, -2.4, 5.72, 5.72, 6.35, 6.08, 6.08, 6.08, 6.35, 6.35, 6.98, 6.7, 6.7, 6.7, 6.7, 6.7, 6.7, 6.34, 6.61, 6.33, 6.33, 6.33, 6.33, 6.08, 6.08, 6.08, 6.34, 6.34, 5.7, 5.72, 5.72, 5.72, 5.72, 5.72, 5.46, 5.34, 5.09, 5.72, 5.72, 5.72, 6.04, 6.04, 6.04, 6.32, 5.71, 5.1, 5.1, 5.1, 5.1, 5.1, 5.08, 5.08, 4.74, 4.43, 4.11, 3.79, 3.73, 3.64, 3.72, 3.6, 3.6, 3.6, 3.2, 3.32, 2.91, 2.63, 2.24, 1.34, 0.89, 0.89, 1.34, 1.34, 1.79, 2.6, 2.91, 6.07, 5.73, 6.64, 7.1, 7.1, 7.15, 7.15, 7.15, 7.08, 6.88, 4.43, -1.19, -6.64, -7.6, -7.15, -7.15, -6.64, -5.94, -4.98, -3.6, -2.6, -2.21, -1.4, -1.4, -1.4, 5.72, 5.72, 6.35, 6.08, 6.08, 6.08, 6.35, 6.35, 6.98, 6.7, 6.7, 6.7, 6.7, 6.7, 6.7, 6.34, 6.61, 6.33, 6.33, 6.33, 6.33, 6.08, 6.08, 6.08, 6.34, 6.34, 5.7, 5.72, 5.72, 5.72, 5.72, 5.72, 5.46, 5.34, 5.09, 5.72, 5.72, 5.72, 6.04, 6.04, 6.04, 6.32, 5.71, 5.1, 5.1, 5.1, 5.1, 5.1, 5.08, 5.08, 4.74, 4.43, 4.11, 3.79, 3.73, 3.64, 3.72, 3.6, 3.6, 3.6, 3.2, 3.32, 2.91, 2.63, 2.24, 1.34, 0.89, 0.89, 1.34, 1.34, 1.79, 2.6, 2.91, 6.07, 5.73, 6.64, 7.1, 7.1, 7.15, 7.15, 7.15, 6.64, 6.45, 4.89, 2.16, -2.4, -6.64, -7.15, -7.15, -7.1, -6.45, -5.51, -3.93, -3.16, -2.84, -1.4, -1.4, -1.4]}, {"header": {"dx": 0.06612293990616946, "dy": 0.0552356325346848, "nx": 98, "ny": 59, "la1": 35.046912555036876, "la2": 31.78801023549047, "lo1": -121.43107172385933, "lo2": -114.95102361305473, "refTime": "2026040819", "parameterCategory": 1, "parameterNumber": 3}, "data": [-6.79, -6.23, -6.23, -5.65, -5.08, -4.47, -4.08, -3.83, -3.4, -2.89, -2.73, -2.26, -1.84, -1.75, -2.64, -5.4, -6.71, -7.08, -8.06, -8.06, -7.28, -8.0, -6.18, -5.95, -5.58, -5.21, -4.89, -4.54, -4.98, -4.6, -4.4, -4.34, -4.02, -4.47, -4.34, -4.98, -5.37, -5.58, -4.74, -4.58, -4.16, -3.99, -5.46, -6.5, -7.51, -7.38, -7.93, -8.18, -8.05, -6.7, -5.46, -3.6, -1.84, 0.0, 1.05, 1.99, 2.99, 2.8, 1.98, 1.98, 1.98, 1.84, 1.05, 1.05, 0.88, 0.96, 0.89, 0.95, 1.73, 0.94, 0.89, 0.0, 0.0, 0.0, 0.0, 0.0, 0.0, 0.0, -1.27, -2.8, -3.13, -3.13, -3.2, -3.2, -2.21, -0.99, 0.0, 0.0, 1.19, 5.26, 6.71, 7.15, 7.6, 7.54, 6.88, 6.64, 6.26, 6.45, -6.79, -6.79, -6.23, -5.69, -5.08, -4.81, -4.47, -3.83, -3.83, -3.4, -2.75, -3.45, -2.67, -3.09, -2.69, -4.74, -6.71, -8.49, -8.38, -7.12, -8.4, -8.4, -8.4, -7.28, -5.58, -5.58, -4.89, -5.21, -5.6, -5.6, -4.98, -4.98, -5.26, -4.92, -5.26, -4.98, -5.58, -6.21, -6.18, -6.11, -6.01, -6.58, -7.85, -9.17, -10.12, -10.01, -9.24, -8.18, -7.51, -6.7, -5.21, -3.6, -1.96, 0.0, 0.82, 1.98, 3.0, 2.64, 1.84, 1.84, 0.89, 0.96, 0.88, 1.05, 0.0, 0.0, 0.0, 0.95, 0.89, 0.84, 0.84, 0.0, 0.0, 0.0, 0.0, 0.0, 0.0, 0.0, -1.27, -2.8, -3.13, -3.13, -3.2, -3.2, -2.21, -0.99, 0.0, 0.0, 1.19, 5.26, 6.71, 7.15, 7.6, 7.54, 6.88, 6.64, 6.26, 6.45, -6.79, -6.79, -6.57, -5.95, -5.69, -5.1, -4.73, -4.46, -3.83, -3.4, -3.42, -2.61, -3.6, -4.03, -4.03, -4.58, -6.88, -7.6, -7.98, -9.29, -8.06, -9.04, -9.45, -8.18, -6.98, -5.49, -5.58, -5.6, -6.16, -6.57, -7.12, -6.88, -6.64, -6.71, -4.98, -6.8, -5.95, -6.82, -7.44, -7.81, -8.3, -10.55, -12.22, -12.84, -13.23, -11.2, -9.17, -7.18, -6.04, -6.18, -5.36, -3.6, -1.73, -0.95, 0.0, 1.84, 1.84, 1.73, 1.73, 0.95, 0.95, 0.0, 0.0, 0.0, 0.0, 0.0, 0.0, 0.0, 0.0, 0.0, 0.0, -0.89, -0.89, -1.72, -1.99, -1.19, -1.08, -1.27, -2.21, -3.2, -3.58, -3.58, -3.39, -3.39, -2.97, -2.6, -2.41, -1.99, 2.23, 6.26, 7.15, 7.15, 7.15, 7.08, 6.36, 5.4, 5.81, 6.36, -6.79, -6.79, -6.79, -6.28, -6.01, -5.41, -5.1, -4.46, -4.46, -3.83, -3.84, -3.85, -5.1, -4.95, -5.24, -6.11, -7.12, -8.49, -8.49, -8.77, -8.77, -8.91, -9.04, -8.43, -7.81, -7.81, -6.21, -6.16, -6.45, -7.37, -8.29, -8.56, -8.77, -8.38, -8.05, -7.89, -8.4, -9.32, -10.04, -11.28, -12.89, -14.86, -14.5, -13.26, -12.27, -10.28, -7.68, -5.24, -3.72, -4.58, -4.65, -3.77, -2.51, -0.95, 0.0, 0.95, 1.73, 1.73, 0.89, 0.89, 0.0, 0.0, 0.0, 0.0, 0.0, 0.0, 0.0, 0.0, 0.0, 0.0, -0.85, -2.69, -3.6, -3.64, -3.35, -2.2, -1.08, 0.0, -3.13, -3.13, -2.68, -3.58, -3.58, -4.02, -3.9, -4.4, -4.29, 0.0, 5.36, 7.15, 7.15, 7.15, 7.1, 6.45, 5.37, 4.98, 5.81, 6.36, -6.79, -6.79, -6.79, -6.52, -6.28, -5.71, -5.71, -5.1, -4.46, -4.47, -4.08, -4.47, -5.36, -4.94, -6.11, -7.2, -7.63, -8.45, -8.94, -9.35, -10.2, -9.46, -9.04, -9.32, -8.43, -9.32, -8.8, -8.48, -8.82, -8.05, -8.94, -9.8, -10.6, -10.14, -11.18, -11.11, -11.03, -11.33, -13.25, -15.09, -15.12, -13.23, -11.25, -9.26, -8.53, -7.48, -6.18, -3.33, -1.99, -2.2, -2.99, -2.8, -1.72, 0.0, 0.0, 0.95, 0.89, 0.89, 0.89, 0.0, 0.0, 0.0, 0.0, 0.0, 0.0, 0.0, 0.0, 0.0, 0.0, 0.0, 0.0, -0.96, -4.57, -5.73, -4.82, -3.6, -2.23, 0.0, -3.2, -2.97, -3.13, -3.58, -4.02, -4.02, -4.77, -3.93, 0.0, 5.36, 7.1, 7.15, 6.71, 6.71, 6.88, 5.95, 4.74, 4.8, 5.73, 6.45, -6.79, -6.79, -7.15, -6.87, -6.62, -6.01, -5.71, -5.71, -5.1, -5.1, -4.47, -4.47, -5.36, -4.5, -4.94, -7.2, -8.56, -9.34, -9.39, -9.83, -9.79, -10.14, -10.88, -10.4, -10.4, -10.46, -10.88, -10.84, -10.65, -10.73, -9.39, -9.83, -10.25, -10.73, -10.28, -11.15, -11.36, -11.02, -13.25, -14.95, -13.75, -11.88, -9.0, -7.36, -7.24, -7.64, -5.9, -3.27, -1.03, 0.0, 0.0, 0.0, 0.0, 0.0, 0.0, 0.0, 0.0, 0.0, 0.0, 0.0, 0.0, 0.0, 0.0, 0.0, 0.0, 0.0, 0.0, 0.0, 0.95, 1.84, 2.99, 4.47, -0.0, -3.22, -4.4, -4.47, -3.58, -2.68, -3.2, -3.72, -4.02, -4.02, -4.02, -4.47, -4.77, 0.0, 5.81, 7.6, 6.71, 6.26, 6.71, 6.64, 6.57, 5.49, 3.97, 5.4, 6.17, 6.45, -6.79, -6.79, -7.15, -6.87, -6.87, -6.32, -6.32, -5.71, -5.71, -5.1, -5.08, -4.45, -5.36, -4.34, -3.87, -6.01, -8.3, -9.64, -9.8, -9.81, -9.39, -10.25, -10.89, -11.54, -11.99, -11.78, -12.27, -12.71, -12.27, -10.41, -10.65, -9.35, -8.72, -8.8, -8.82, -9.81, -10.58, -10.05, -10.4, -12.3, -13.37, -12.42, -12.04, -11.16, -10.09, -8.22, -6.7, -4.56, -1.73, 0.0, 0.0, 0.0, 0.0, 0.0, 0.0, 0.0, 0.0, 0.0, 0.0, 0.0, 0.0, 0.0, 0.89, 0.89, 0.89, 0.95, 0.89, 0.0, 0.0, 2.16, 4.29, 5.73, 4.82, 2.48, -0.0, -1.6, -3.2, -3.2, -3.6, -3.72, -4.02, -4.02, -4.02, -4.02, -3.39, 2.68, 6.26, 6.26, 5.81, 5.81, 4.92, 5.09, 5.58, 4.87, 3.97, 5.94, 7.15, 7.08, -6.79, -6.79, -7.15, -6.87, -6.87, -6.59, -6.32, -6.32, -5.71, -5.71, -5.08, -5.01, -6.01, -5.82, -4.88, -5.49, -7.69, -9.49, -9.72, -10.14, -9.24, -8.9, -9.83, -10.14, -9.49, -9.97, -10.2, -11.03, -11.44, -11.62, -11.78, -12.07, -11.99, -10.24, -8.55, -8.33, -7.42, -2.53, -3.48, -10.2, -12.27, -12.42, -12.04, -11.44, -10.0, -9.32, -7.06, -5.89, -4.26, -2.66, -1.08, 0.0, 0.0, -1.05, -0.96, -0.89, -0.83, -0.94, 0.0, 0.0, 0.0, 0.0, 0.0, 0.0, 0.89, 0.95, 0.95, 0.0, 0.0, 1.05, 2.4, 3.48, 4.4, 4.92, 4.34, 2.4, -0.0, -2.8, -2.53, -2.48, -2.98, -3.13, -2.8, -2.8, -1.0, 2.4, 4.02, 4.92, 4.92, 4.92, 3.95, 3.58, 3.91, 3.55, 4.74, 6.45, 7.6, 7.6, -6.98, -7.35, -7.35, -7.09, -7.44, -6.92, -6.59, -6.32, -6.32, -5.71, -5.69, -6.03, -8.93, -8.21, -7.81, -7.76, -8.82, -9.75, -10.6, -10.58, -10.41, -9.97, -9.21, -8.9, -8.05, -7.45, -7.45, -8.4, -10.0, -11.99, -12.91, -13.86, -12.27, -9.45, -7.2, -7.37, -5.36, 6.07, 6.26, -4.02, -9.83, -11.78, -11.03, -9.45, -8.48, -7.12, -8.0, -6.98, -5.37, -3.91, -3.47, -2.2, -0.96, -1.05, -0.96, -1.72, -1.96, -0.89, -0.94, -0.94, -0.89, -0.83, -0.95, 0.0, 0.0, 0.0, 0.0, 0.0, 0.0, 0.0, 0.0, 0.81, 1.08, 2.6, 3.39, 3.82, 3.58, 2.68, -0.0, -1.98, -3.16, -3.13, -2.4, -0.99, 0.0, 1.13, 2.98, 3.82, 3.47, 2.98, 2.53, 2.41, 2.53, 4.19, 5.95, 7.1, 7.6, 7.6, -7.35, -7.35, -7.09, -7.44, -7.44, -7.17, -6.92, -6.92, -6.34, -6.32, -6.28, -6.87, -5.95, -5.49, -9.2, -9.66, -10.17, -10.6, -11.78, -11.35, -10.91, -10.47, -10.91, -8.48, -4.8, 0.0, -5.09, -7.94, -9.74, -10.65, -10.73, -8.05, -4.47, 0.0, 0.0, -1.84, 4.47, 6.45, 7.6, 6.26, -2.8, -8.33, -9.24, -7.2, -5.58, -6.0, -5.6, -4.89, -4.43, -4.11, -3.22, -3.22, -2.76, -2.76, -2.6, -3.0, -2.82, -2.67, -2.67, -2.67, -2.67, -2.82, -2.82, -1.84, -0.96, -0.95, -0.84, -0.79, -0.78, -0.89, -0.89, -0.82, 0.0, 0.0, 1.2, 1.9, 3.2, 3.39, 2.24, -1.2, -2.84, -3.2, -3.13, -1.74, 0.0, 0.88, 1.8, 1.8, 1.98, 1.74, 1.6, 1.8, 2.95, 4.89, 5.95, 6.88, 7.54, 7.54, -7.35, -7.35, -7.09, -7.44, -7.17, -7.17, -7.17, -6.92, -6.64, -6.34, -6.32, -7.51, -6.97, -6.35, -7.59, -8.4, -9.55, -5.4, -4.98, -4.98, -9.97, -9.92, -7.31, 0.0, 4.92, 4.4, 0.0, -4.02, -4.47, -4.47, -2.53, 3.82, 5.81, 5.94, 5.37, 5.58, 6.51, 7.15, 5.51, 6.0, 4.29, -4.6, -8.56, -8.15, -5.69, -3.63, -4.11, -4.11, -3.22, -3.22, -2.76, -2.99, -2.99, -3.91, -4.19, -4.58, -5.24, -5.53, -5.24, -4.68, -3.77, -3.55, -2.8, -2.6, -1.98, -1.73, -2.54, -2.67, -2.82, -2.64, -1.84, -2.47, -1.7, -0.88, 0.0, 0.0, 0.0, 2.21, 2.8, 2.24, -1.9, -3.6, -4.02, -2.6, -1.6, 0.0, 0.0, 0.0, 0.0, 0.0, 0.0, 1.08, 2.0, 3.79, 4.89, 6.0, 6.88, 6.88, -7.35, -7.35, -7.44, -7.44, -7.51, -7.51, -7.51, -7.25, -6.64, -6.64, -6.64, -7.23, -7.59, -6.97, -5.04, -3.8, -3.21, -3.22, -2.98, -2.61, -3.57, -3.64, -0.0, 5.72, 5.36, 4.84, 4.11, 1.58, 4.34, 4.92, 5.81, 6.17, 5.73, 5.26, 4.82, 4.98, 4.6, 4.54, 4.89, 3.72, 3.91, 0.0, -7.37, -8.63, -6.28, -3.91, -3.0, -3.47, -4.43, -4.43, -3.79, -2.99, -2.99, -3.63, -4.43, -4.74, -4.58, -5.84, -6.18, -5.49, -4.74, -3.91, -4.11, -3.49, -2.8, -1.73, -1.75, -4.26, -5.37, -4.58, -3.9, -3.33, -3.22, -2.99, -2.2, -2.23, -1.4, 0.0, 1.34, 1.26, 0.0, -3.2, -4.02, -4.47, -3.2, -2.84, -2.0, -2.0, -0.98, -0.98, -0.87, 0.0, 0.98, 1.19, 3.22, 4.98, 5.6, 6.0, -7.35, -7.72, -7.44, -7.44, -7.51, -7.51, -7.51, -7.23, -6.95, -6.95, -6.95, -7.23, -7.59, -7.33, -6.29, -4.68, -3.37, -2.13, -1.65, -1.58, -2.07, -2.14, 0.0, 1.6, 2.18, 1.57, 1.11, 1.58, 2.23, 2.15, 4.82, 5.73, 5.09, 5.26, 5.26, 4.98, 3.48, 2.99, 2.8, 2.8, 2.8, 0.0, -5.94, -8.06, -7.28, -5.06, -3.47, -3.47, -4.74, -5.58, -4.6, -3.79, -2.0, 0.0, 0.0, 0.0, 0.0, -4.47, -4.34, -2.68, 0.0, -1.6, -3.72, -4.29, -2.99, -0.95, 0.0, -0.95, -6.0, -6.57, -5.58, -5.15, -5.24, -4.98, -4.4, -3.82, -3.13, -2.68, -1.79, 0.0, 0.0, 0.0, -0.0, -2.68, -4.02, -4.34, -4.4, -3.6, -2.84, -1.98, -1.98, -0.87, 0.0, 0.0, 0.96, 3.22, 4.65, 4.98, -7.35, -7.44, -7.44, -8.0, -7.73, -7.73, -7.51, -7.23, -7.23, -6.95, -6.95, -7.27, -7.59, -7.61, -7.6, -6.27, -4.65, -3.32, -2.82, -2.19, -1.72, -2.23, -1.67, -0.45, 0.61, 1.13, 1.13, 1.6, 2.23, 2.53, 2.91, 5.81, 6.07, 4.98, 4.98, 4.6, 3.35, 1.98, 1.72, 1.98, 1.84, 1.19, -4.84, -8.06, -7.6, -5.72, -2.76, -1.52, 0.0, -1.84, -3.47, -1.84, 3.48, 5.81, 6.07, 4.8, 5.06, 4.47, -0.0, 3.22, 5.73, 5.51, 0.0, 0.0, 0.0, 0.0, 3.55, 4.29, 0.0, -5.36, -6.26, -4.34, -1.6, -0.0, -0.0, -1.6, -2.53, -1.6, -2.8, -2.68, -2.24, 0.0, -0.0, -0.0, -1.79, -2.68, -3.58, -4.47, -3.13, -2.98, -2.98, -2.84, -1.98, -1.08, 0.0, 1.05, 3.22, 4.29, -7.72, -7.44, -7.64, -8.0, -7.73, -7.73, -7.73, -7.23, -7.55, -7.55, -7.27, -7.27, -7.3, -7.32, -7.61, -6.94, -6.25, -5.14, -3.96, -3.32, -2.9, -2.34, -2.75, -2.36, -0.6, 0.6, 0.99, 1.58, 1.9, 2.44, 2.91, 2.68, 6.07, 6.07, 5.6, 5.72, 4.29, 1.84, 0.0, 0.0, 0.0, 0.0, -1.55, -6.0, -6.64, -5.21, 0.0, 3.22, 4.74, 3.0, 1.63, 4.11, 6.26, 6.26, 6.07, 5.21, 5.21, 3.9, 3.9, 6.51, 6.71, 7.01, 6.51, 5.21, 5.21, 5.06, 7.47, 8.0, 6.01, 0.0, -1.6, 3.91, 6.18, 7.63, 7.37, 3.93, -0.0, -1.27, -1.6, -2.8, -1.9, -0.0, -0.0, -0.0, 2.24, 3.58, 1.4, -2.84, -2.97, -3.39, -4.34, -3.9, -3.6, -2.84, -1.08, 0.96, 2.0, 2.0, -7.72, -7.64, -8.0, -8.0, -7.73, -7.73, -8.08, -7.81, -7.55, -7.55, -7.27, -7.27, -7.3, -7.32, -7.33, -6.96, -6.27, -5.6, -5.14, -4.46, -3.93, -2.87, -2.82, -2.83, -1.73, 0.0, 0.6, 1.34, 1.79, 2.17, 2.49, 2.63, 2.68, 6.07, 6.58, 5.43, 4.58, 1.84, 0.0, 0.0, 0.0, 2.0, 0.0, -4.84, -6.07, 0.0, 5.36, 6.26, 5.64, 4.84, 4.84, 5.51, 5.51, 5.09, 5.09, 3.79, 4.11, 5.51, 6.07, 6.51, 5.94, 5.6, 5.6, 6.0, 6.0, 6.4, 4.98, 6.01, 5.59, 4.74, 5.73, 8.4, 8.99, 8.9, 8.94, 7.6, 3.72, -1.08, -2.23, -3.72, -3.35, -2.53, -1.4, -0.0, -0.0, 2.68, 4.02, 1.9, -2.24, -1.9, -3.58, -4.02, -3.6, -1.8, -1.8, 0.0, 0.0, 0.0, -7.9, -7.64, -8.0, -8.0, -7.73, -8.08, -8.08, -7.81, -7.55, -7.27, -7.27, -7.27, -7.3, -7.32, -7.33, -6.96, -6.29, -6.27, -5.14, -4.46, -4.62, -3.41, -2.9, -2.25, -1.12, 0.0, 0.0, 0.61, 0.57, 1.34, 2.17, 2.63, 2.68, 6.26, 5.75, 5.75, 5.21, 3.47, 1.7, 2.2, 3.48, 3.93, 2.98, 0.0, 0.0, 5.36, 7.15, 5.81, 4.92, 4.47, 4.66, 4.66, 5.09, 4.46, 3.79, 2.98, 3.22, 4.84, 4.43, 5.36, 5.36, 4.43, 3.22, 3.22, 3.22, 2.95, 3.72, 4.29, 6.44, 6.94, 7.89, 7.35, 7.63, 8.0, 8.0, 8.06, 6.17, 1.9, -2.53, -2.84, -2.48, -2.48, -2.48, -1.4, -0.0, -0.0, 3.13, 2.24, 0.0, 0.0, -2.98, -4.38, -3.9, -2.53, -2.23, -1.74, 0.0, 0.0, -7.64, -8.0, -8.0, -7.73, -8.08, -8.08, -8.08, -7.81, -7.81, -7.27, -7.27, -7.59, -7.3, -7.32, -7.32, -6.7, -6.29, -6.27, -5.6, -4.65, -4.1, -3.53, -2.9, -1.62, 0.0, 0.0, -0.53, -0.55, 0.0, 0.0, 1.27, 2.17, 2.17, 2.68, 3.13, 5.81, 4.92, 5.09, 4.84, 4.84, 6.07, 6.0, 5.21, 5.21, 6.23, 7.06, 6.64, 5.09, 4.47, 4.02, 4.02, 4.0, 3.16, 2.2, 1.7, 1.7, 3.22, 3.22, 3.22, 3.47, 2.8, 2.8, 3.22, 1.7, 0.0, 1.08, 0.96, 1.52, 6.4, 7.45, 7.15, 5.94, 6.64, 7.15, 7.37, 7.53, 7.53, 5.94, 4.47, 4.47, 4.92, 3.48, 1.19, -0.0, -1.9, -0.0, 0.0, 2.68, 2.8, 3.13, -1.4, -4.4, -4.02, -2.6, -2.53, -2.8, -2.0, -2.0, -7.64, -8.0, -8.0, -8.08, -8.08, -8.08, -8.08, -7.81, -8.15, -7.59, -7.59, -7.59, -7.3, -7.6, -7.32, -8.95, -6.71, -6.56, -5.64, -4.02, -3.41, -3.5, -3.56, -4.1, -3.29, -3.68, -2.61, -4.5, -2.99, 0.0, 1.2, 1.7, 1.7, 1.7, 2.17, 2.17, 1.7, 1.2, 3.16, 4.84, 4.29, 4.65, 5.21, 6.0, 6.08, 5.37, 4.29, 3.79, 4.0, 4.47, 4.0, 4.0, 2.0, 1.55, 1.7, 1.41, 1.84, 1.84, 3.22, 1.41, 1.52, 1.52, 1.52, 0.96, 0.0, 0.0, 0.0, 0.88, 2.99, 5.06, 6.08, 5.58, 5.6, 5.94, 5.6, 6.16, 6.57, 7.37, 8.0, 8.0, 8.05, 6.57, 3.22, 0.99, -0.0, -0.0, 2.21, 1.58, 3.13, 3.39, 2.68, -2.53, -3.82, -3.13, -2.21, -2.68, -2.68, -2.68, -8.0, -8.0, -8.0, -8.08, -8.08, -8.08, -8.08, -8.15, -8.15, -7.86, -7.59, -7.59, -7.3, -7.6, -7.61, -6.98, -6.98, -6.7, -7.51, -6.33, -5.55, -4.65, -5.14, -7.49, -7.24, -6.7, -6.64, -3.35, -1.7, -0.0, 0.63, 1.34, 1.34, 1.79, 1.79, 1.34, 0.89, 0.63, 1.26, 1.24, 1.88, 2.21, 2.23, 2.84, 2.86, 2.82, 2.49, 2.98, 4.0, 4.0, 4.0, 3.48, 3.48, 3.79, 2.2, 1.99, 1.52, 0.96, 0.88, 0.0, 0.0, 1.41, 1.41, 0.0, 0.0, 0.0, 0.0, 0.0, 1.84, 2.67, 2.69, 2.7, 2.57, 1.84, 3.48, 4.98, 5.73, 6.17, 7.54, 8.0, 8.05, 8.0, 6.0, 2.2, 1.27, -0.0, -0.0, -0.0, 2.24, 2.4, 3.82, 2.8, -1.6, -2.68, -1.79, 0.0, -2.68, -2.68, -8.0, -8.0, -8.0, -8.08, -8.08, -8.08, -8.08, -8.15, -8.15, -7.86, -7.86, -7.3, -7.6, -7.32, -7.61, -7.33, -6.97, -6.7, -6.67, -8.85, -8.18, -5.46, -6.08, -6.69, -6.06, -5.08, -3.16, -1.79, -0.6, -0.0, 0.45, 0.89, 0.89, 1.34, 1.34, 1.34, 0.89, 0.89, 1.2, 1.26, 1.61, 1.88, 2.53, 3.09, 3.43, 4.56, 2.8, 2.2, 4.0, 4.0, 4.4, 3.48, 3.79, 3.79, 3.22, 2.99, 1.98, 0.76, 0.0, 0.0, 0.0, 0.0, 0.0, 0.0, 0.0, 1.08, 0.96, 0.96, 1.84, 1.84, 1.75, 0.0, -1.67, -0.88, 1.9, 3.58, 4.02, 5.81, 6.71, 7.1, 7.55, 8.05, 7.1, 4.22, 2.48, -0.0, -1.6, -1.2, -0.0, 1.79, 3.58, 4.34, 1.6, -0.0, 0.0, 0.0, -1.79, -1.79, -8.0, -8.0, -8.37, -8.08, -8.08, -8.29, -8.44, -8.15, -8.15, -7.86, -7.86, -7.3, -7.6, -7.32, -7.61, -7.61, -7.33, -6.97, -7.61, -7.32, -6.08, -5.08, -5.09, -5.44, -6.01, -5.1, -2.6, -0.45, -0.0, -0.0, 0.0, 0.45, 0.89, 0.89, 1.34, 1.34, 1.34, 0.89, 1.2, 1.26, 1.9, 2.5, 3.07, 3.7, 4.6, 4.0, 2.8, 4.0, 4.92, 5.36, 5.09, 4.46, 3.79, 2.98, 3.22, 2.8, 3.0, 1.84, 0.0, -3.47, -2.2, -0.96, -0.96, 0.0, 0.0, 0.0, 0.0, 0.96, 0.96, 2.82, 2.69, 0.0, -4.02, -3.16, 2.53, 2.21, 2.98, 4.57, 5.31, 6.26, 7.54, 7.55, 8.49, 7.6, 6.17, 4.4, 2.84, 2.23, 0.98, -0.0, 2.21, 3.39, 2.6, 1.58, 0.0, 0.0, 0.0, 0.0, -8.0, -8.0, -8.0, -8.08, -8.29, -8.29, -8.65, -8.38, -8.15, -7.86, -7.86, -7.9, -7.6, -7.32, -7.61, -7.61, -7.6, -7.6, -7.33, -7.33, -6.06, -5.0, -3.76, -3.84, -4.74, -5.06, -3.2, -1.24, 0.0, 0.0, 0.0, 0.0, 0.63, 0.63, 0.89, 1.34, 1.34, 0.89, 1.2, 1.26, 1.86, 2.15, 2.91, 3.98, 4.89, 4.34, 4.4, 4.92, 5.81, 6.26, 6.07, 5.21, 4.84, 3.22, 3.22, 3.47, 2.8, 2.64, 0.0, -3.48, -4.6, -3.22, -2.2, -1.27, 0.0, 0.0, 0.0, 0.0, 1.05, 1.84, 2.82, 4.8, -1.03, -0.0, -0.0, -0.0, 1.6, 2.84, 4.15, 5.36, 5.81, 7.15, 8.05, 8.49, 8.9, 8.05, 7.54, 6.36, 4.11, 1.05, 0.98, 2.21, 2.4, 1.58, 0.0, 0.0, 0.0, 0.0, -8.0, -8.0, -8.0, -8.08, -8.29, -8.65, -8.65, -8.38, -8.38, -8.15, -8.19, -7.9, -7.9, -7.61, -7.61, -7.61, -7.96, -7.6, -7.6, -7.33, -6.68, -5.6, -4.51, -3.49, -3.22, -3.79, -3.48, -2.53, -1.24, -0.63, 0.0, 0.0, 0.0, 0.0, 0.63, 1.2, 1.2, 1.34, 1.2, 1.2, 1.26, 1.86, 2.6, 3.13, 3.98, 3.54, 5.36, 5.81, 6.71, 6.71, 6.58, 6.0, 4.43, 4.43, 4.11, 3.47, 2.99, 2.8, 3.0, -2.2, -4.82, -4.4, -2.53, 0.0, 0.0, 0.0, 0.0, 0.0, 0.0, 0.0, 1.03, 5.2, -0.0, -1.05, -0.0, -0.0, -0.0, 1.7, 4.11, 4.82, 5.81, 5.81, 6.26, 7.11, 8.0, 8.49, 8.05, 7.15, 4.8, 1.19, -0.0, -0.0, 1.2, 1.26, 0.0, 0.0, 0.0, 0.0, -8.0, -8.0, -8.0, -8.08, -8.29, -8.29, -8.65, -8.38, -8.38, -8.38, -8.19, -8.19, -7.9, -7.93, -7.61, -7.61, -7.96, -7.6, -7.6, -7.33, -6.92, -6.9, -5.8, -4.72, -3.8, -3.49, -2.86, -2.84, -2.23, -1.0, -0.57, 0.0, 0.0, 0.0, 0.0, 0.6, 1.26, 1.2, 1.2, 1.2, 0.95, 1.26, 1.7, 2.24, 2.91, 2.68, 2.4, 3.13, 3.58, 3.53, 3.87, 6.0, 6.0, 6.0, 4.74, 3.47, 2.8, 1.99, 3.0, 1.7, -2.84, -3.13, 0.0, 0.0, 2.21, 1.13, 1.08, 0.0, 0.0, -0.96, 0.0, 2.2, -0.0, -2.64, -1.84, -0.88, -0.0, 1.08, 3.22, 4.98, 5.59, 5.75, 5.81, 6.21, 7.1, 7.6, 7.6, 7.1, 5.36, 2.8, -0.0, -0.98, -0.0, -0.0, 0.0, 0.0, 0.0, 0.0, -8.0, -8.0, -8.0, -8.08, -8.29, -8.29, -8.65, -8.38, -8.38, -8.38, -8.45, -8.19, -7.9, -7.93, -7.93, -7.95, -7.6, -7.6, -7.6, -7.33, -7.59, -7.16, -6.9, -6.27, -5.02, -3.83, -3.2, -2.58, -2.23, -1.84, -1.0, -0.65, -0.54, 0.0, 0.0, 0.57, 0.99, 1.26, 1.2, 1.2, 0.6, 0.6, 1.2, 1.34, 1.7, 1.86, 2.0, 2.6, 3.13, 3.13, 3.53, 3.82, 6.51, 6.64, 5.72, 4.74, 3.47, 3.22, 3.47, 3.0, 3.47, 2.84, 0.0, 2.68, 2.8, 2.84, 2.2, 1.05, 0.0, -0.96, -0.89, 0.0, 0.0, -2.0, -3.0, -2.12, -0.0, 0.81, 2.99, 4.74, 5.58, 5.09, 5.36, 5.81, 6.26, 7.15, 7.54, 7.12, 6.88, 5.73, 4.92, -2.0, -0.87, -1.2, -0.0, 0.0, -0.0, -0.0, -8.0, -8.0, -8.0, -8.08, -8.29, -8.29, -8.65, -8.65, -8.38, -8.73, -8.45, -8.45, -7.9, -8.22, -7.93, -7.95, -7.95, -7.6, -7.6, -7.33, -7.59, -7.57, -7.16, -6.92, -6.06, -5.32, -4.1, -2.84, -2.22, -1.58, -1.13, -1.11, -0.57, -0.57, -0.59, 0.0, 0.0, 0.65, 1.24, 0.99, 0.57, 0.57, 0.54, 0.63, 0.89, 1.6, 2.0, 2.49, 3.07, 3.13, 3.13, 3.53, 3.53, 3.87, 5.6, 4.89, 4.43, 4.84, 4.11, 3.63, 3.2, 1.99, 2.2, 4.02, 5.36, 3.72, 2.2, 0.96, 0.0, 0.0, -0.95, 0.0, 1.01, 1.05, 0.0, -0.0, -0.0, -0.0, 1.98, 3.97, 4.74, 3.93, 3.95, 4.92, 5.31, 5.81, 6.88, 7.12, 7.37, 7.54, 7.11, 4.85, -1.19, -1.27, -0.0, -0.0, -0.0, -0.0, -8.0, -8.0, -7.73, -8.08, -8.08, -8.29, -8.65, -8.65, -8.38, -8.38, -8.45, -8.45, -7.9, -8.22, -7.93, -7.95, -7.95, -7.6, -7.6, -7.33, -7.59, -7.32, -6.92, -6.68, -6.29, -5.95, -5.1, -4.47, -3.22, -2.18, -1.73, -1.08, -0.55, -0.55, -0.57, 0.0, 0.0, 0.0, 0.53, 0.54, 0.71, 0.54, 0.65, 0.0, -0.63, -0.0, 1.0, 2.91, 3.53, 3.58, 3.13, 3.53, 3.53, 3.53, 3.82, 5.37, 5.36, 5.6, 4.98, 3.91, 1.98, 0.89, 3.22, 5.51, 5.51, 5.21, 0.96, 0.0, 0.0, 0.0, 0.0, 0.0, 0.0, 1.84, 4.89, 5.81, 3.22, -0.0, -0.0, 1.72, 2.8, 1.38, 1.49, 3.58, 4.02, 4.02, 5.09, 6.45, 7.15, 7.6, 7.54, 6.71, -0.0, -0.79, -0.99, -1.58, -1.58, -1.58, -8.0, -8.0, -7.73, -8.08, -8.08, -8.29, -8.65, -8.65, -8.38, -8.38, -8.73, -8.45, -8.78, -8.22, -7.93, -8.24, -7.95, -7.33, -7.6, -7.6, -7.59, -7.32, -6.92, -6.68, -6.56, -6.08, -5.72, -5.1, -4.1, -3.22, -2.18, -1.07, -0.54, -0.54, -0.55, 0.0, 0.0, 0.0, 0.0, 0.53, 0.54, 0.54, 0.54, 1.27, 0.0, -0.45, -0.0, 3.35, 4.3, 3.58, 3.58, 3.53, 3.53, 3.53, 3.39, 3.39, 5.6, 6.0, 4.89, 3.91, 1.98, 0.96, 4.11, 6.57, 6.21, 3.91, 1.98, 0.0, -1.84, -1.73, -0.89, 0.0, 0.0, 1.08, 5.36, 6.64, 6.64, 3.48, -0.0, -0.0, 1.84, 1.61, 0.95, 0.89, 3.13, 3.47, 4.41, 6.26, 6.71, 6.71, 6.64, 6.17, 4.47, -0.0, -1.13, -1.2, -2.4, -2.4, -8.0, -8.0, -7.73, -8.08, -8.08, -8.08, -8.29, -8.65, -8.38, -8.38, -8.38, -8.45, -8.45, -8.5, -7.93, -8.24, -7.95, -7.95, -7.6, -7.6, -7.59, -7.32, -6.92, -6.68, -6.29, -6.33, -5.72, -5.1, -4.47, -3.22, -2.36, -1.7, -1.16, -0.54, -0.54, -0.55, -0.55, 0.0, 0.0, 0.0, 0.0, 0.54, 0.54, 1.61, 1.61, 0.0, 0.0, 3.87, 4.44, 3.58, 3.13, 3.09, 3.53, 3.53, 3.53, 3.39, 3.39, 3.6, 4.89, 4.54, 2.99, 2.99, 4.74, 6.21, 4.74, 3.72, 3.0, 0.0, -2.8, -4.58, -3.55, -0.95, 0.0, 2.68, 3.22, 4.98, 6.2, 6.26, 2.48, -0.0, -0.0, 0.57, 0.6, 0.45, 0.89, 2.97, 4.02, 4.02, 4.47, 4.47, 4.57, 4.6, 4.38, -0.0, -1.13, -1.2, -2.4, -2.4, -7.73, -7.73, -7.73, -8.08, -8.08, -8.08, -8.08, -8.65, -8.38, -8.38, -8.38, -8.73, -8.45, -8.5, -8.22, -7.93, -8.24, -7.95, -7.33, -7.6, -7.33, -7.59, -6.92, -6.68, -6.29, -6.33, -5.72, -5.1, -4.47, -3.85, -2.8, -2.16, -1.67, -1.05, -1.16, -0.54, -0.55, -0.55, -0.57, 0.0, 0.0, 0.0, 0.0, 1.0, 1.2, 0.98, 2.53, 4.02, 3.58, 3.09, 3.07, 3.07, 3.07, 3.53, 3.53, 3.39, 3.39, 3.07, 3.07, 3.79, 2.99, 3.72, 4.87, 3.97, 3.72, 2.8, 1.84, 1.63, 0.0, -3.72, -3.22, 0.0, 1.98, 1.6, 2.2, 3.22, 4.98, 5.73, 4.98, 1.05, -0.0, -0.0, -0.0, -0.0, 0.0, 0.4, 0.57, 1.98, 2.98, 2.97, 3.47, 3.58, 4.0, 2.4, -0.0, -1.2, -1.58, -1.58, -7.73, -7.73, -7.73, -8.08, -8.08, -8.08, -8.08, -8.65, -8.38, -8.38, -8.38, -8.73, -8.45, -8.5, -8.22, -7.93, -8.24, -7.95, -7.95, -7.96, -7.6, -7.33, -7.59, -6.94, -6.29, -6.07, -5.72, -5.1, -6.83, -4.47, -3.85, -3.22, -2.32, -1.67, -1.67, -1.16, -1.07, -1.08, -0.55, -0.57, 0.0, 0.0, 0.0, 0.54, 0.57, 1.26, 2.4, 3.07, 3.07, 2.63, 2.63, 2.63, 3.07, 3.07, 3.07, 3.39, 3.39, 3.07, 2.68, 2.53, 2.99, 3.33, 3.77, 2.35, 1.84, 0.89, 0.0, 0.0, 1.63, 0.0, 1.19, 3.91, 4.37, 1.63, 2.53, 1.84, 2.95, 3.93, 4.29, 1.83, -0.0, -0.88, -1.6, -0.6, -0.45, 0.0, 0.0, 0.0, 0.96, 2.4, 2.68, 3.39, 3.6, 3.13, -0.0, -0.99, -0.0, -0.0, -7.51, -7.51, -7.73, -8.08, -8.08, -8.08, -8.08, -8.08, -8.38, -8.38, -8.38, -8.73, -8.73, -8.45, -8.22, -7.93, -7.93, -8.24, -7.95, -8.24, -7.6, -7.6, -7.33, -6.94, -6.7, -6.31, -6.35, -5.44, -5.41, -7.48, -4.74, -3.83, -2.82, -2.32, -2.16, -1.67, -1.7, -1.07, -1.08, -0.63, -0.51, 0.0, 0.0, 0.0, 0.0, 0.57, 1.49, 2.12, 2.17, 2.6, 2.6, 2.6, 2.6, 2.63, 3.07, 2.91, 2.91, 3.2, 3.07, 2.53, 2.48, 2.64, 2.82, 1.84, 0.89, 0.0, 0.0, 0.0, 0.0, 1.49, 3.77, 4.42, 2.67, 1.96, 2.8, 1.14, 1.05, 1.83, 1.83, 0.96, -0.0, -0.88, -1.8, -1.74, -0.89, -0.63, -0.57, -1.16, 0.0, 2.8, 3.2, 2.68, 3.39, 2.97, 1.2, -0.0, -0.0, -0.0, -7.51, -7.51, -7.73, -7.73, -8.08, -8.08, -8.08, -8.08, -8.38, -8.38, -8.38, -8.38, -8.73, -8.45, -8.5, -8.22, -7.93, -7.93, -7.95, -7.95, -7.96, -7.6, -7.6, -7.22, -6.7, -6.31, -6.08, -6.01, -5.72, -4.81, -3.83, -3.2, -3.2, -2.82, -2.16, -2.16, -1.84, -1.7, -1.73, -1.08, -1.11, -0.59, 0.0, 0.0, 0.0, 0.0, 0.57, 1.26, 2.12, 2.17, 2.17, 2.0, 2.4, 2.4, 2.49, 2.91, 2.91, 3.07, 3.07, 3.14, 4.29, 4.29, 3.2, 2.66, 0.96, 0.96, 0.96, 0.0, 0.0, 1.49, 3.55, 2.99, 1.58, 1.01, 2.73, 1.41, -0.0, -0.0, -0.0, -0.0, -0.0, -0.87, -1.13, -0.99, -2.4, -1.34, -1.58, -1.61, 0.0, 2.8, 2.53, 2.8, 2.68, 2.97, 2.4, -0.0, -0.0, -0.0, -7.51, -7.51, -7.51, -7.73, -8.08, -8.08, -8.08, -7.81, -8.15, -8.38, -8.38, -8.38, -8.73, -8.45, -8.45, -8.22, -8.22, -7.93, -7.95, -7.95, -7.67, -7.6, -7.33, -6.96, -6.96, -6.31, -6.34, -5.72, -5.44, -4.47, -3.47, -2.61, -2.6, -2.61, -2.61, -2.16, -2.16, -2.18, -1.7, -1.73, -1.08, -0.57, 0.0, 0.0, 0.0, 0.0, 0.0, 0.8, 1.26, 2.12, 1.86, 1.86, 2.0, 2.4, 2.4, 2.91, 2.91, 3.07, 3.2, 2.84, 2.86, 4.29, 3.2, 2.49, 1.63, 1.52, 2.16, 0.96, 0.89, 0.95, 1.72, 1.49, 1.49, 1.73, 1.84, 0.0, -2.2, -1.98, -0.88, -0.0, -0.0, -0.0, -0.99, -0.99, -1.2, -1.79, -1.79, -2.76, 0.0, 3.13, 2.53, 1.6, 1.9, 2.24, 2.4, 1.4, -0.0, -0.0, -7.51, -7.51, -7.51, -7.51, -8.08, -8.08, -7.81, -7.81, -8.15, -8.38, -8.38, -8.38, -8.73, -8.73, -8.45, -8.45, -8.22, -7.93, -8.24, -7.95, -7.95, -7.33, -7.33, -7.33, -6.96, -6.7, -6.33, -5.72, -5.71, -4.81, -4.1, -3.22, -2.84, -2.2, -2.4, -2.36, -2.16, -2.36, -2.18, -1.73, -1.57, -1.11, -0.57, -0.59, -1.13, -1.2, -0.57, 0.0, 0.6, 1.26, 1.86, 1.86, 1.86, 2.4, 2.4, 2.8, 2.91, 3.07, 3.2, 3.43, 2.86, 2.6, 2.66, 1.72, 1.72, 1.4, 1.84, 0.89, 0.0, 0.0, 0.0, 0.95, 1.4, 1.84, 0.94, 0.0, -2.68, -1.08, -0.0, -0.0, -0.99, -1.2, -1.2, -0.0, -1.2, -2.24, -1.9, 0.0, 1.4, 3.13, 2.53, 1.27, -0.0, 1.9, 2.0, 1.9, 0.99, 0.99, -7.51, -7.51, -7.51, -7.51, -7.51, -7.81, -7.81, -7.81, -8.15, -8.15, -8.38, -8.38, -8.73, -8.73, -8.45, -8.45, -8.5, -7.93, -8.24, -7.95, -7.95, -7.61, -7.61, -7.33, -6.7, -6.7, -6.33, -6.08, -5.44, -4.81, -4.75, -3.85, -2.8, -2.18, -2.18, -2.18, -2.36, -2.36, -2.18, -2.18, -1.73, -1.08, -0.57, -0.88, -1.0, -1.86, -1.26, 0.0, 0.0, 1.26, 1.49, 1.86, 1.86, 1.86, 2.4, 2.4, 2.68, 3.07, 3.35, 3.35, 3.16, 3.15, 1.4, 0.89, 1.84, 1.4, 0.96, 0.0, 0.0, 0.0, 0.0, 0.95, 1.32, 0.0, 0.0, -0.96, 0.0, 2.84, 1.05, -0.0, -1.98, -1.4, -1.2, -0.0, -0.0, 0.0, 1.79, 1.2, 2.8, 3.13, 2.84, 1.27, -0.0, 1.4, 1.9, 1.9, 2.97, 2.6, -7.51, -7.51, -7.51, -7.51, -7.23, -7.81, -7.81, -7.81, -8.15, -8.15, -8.38, -8.38, -8.73, -8.73, -8.45, -8.45, -8.78, -8.22, -7.93, -8.24, -7.95, -7.61, -7.33, -7.33, -6.97, -6.97, -6.33, -6.35, -5.72, -5.1, -4.75, -4.1, -3.45, -2.8, -2.16, -2.16, -2.16, -2.36, -2.82, -2.18, -2.2, -1.73, -1.08, -0.96, -1.0, -1.49, -1.7, -0.63, 0.0, 0.6, 1.26, 1.86, 1.86, 1.86, 2.15, 2.15, 2.5, 2.68, 3.6, 3.35, 3.16, 3.15, 2.66, 0.96, 0.89, 0.0, 0.0, 0.0, 0.0, 0.0, 0.0, 0.0, 0.0, 0.0, -1.05, -3.13, -0.0, 2.95, 1.55, -0.0, -0.87, -0.99, -0.0, -0.0, -0.0, 1.79, 0.0, 0.0, 2.68, 3.13, 2.53, 2.23, 1.27, -0.0, -0.0, 1.0, 2.4, 2.97, -7.51, -7.51, -7.51, -7.51, -7.23, -7.55, -7.81, -7.81, -8.15, -8.15, -8.15, -8.38, -8.73, -8.73, -8.45, -8.45, -8.78, -8.5, -7.93, -7.93, -7.93, -7.33, -7.33, -7.33, -6.97, -6.97, -6.33, -6.35, -5.72, -5.1, -5.08, -4.47, -4.1, -3.42, -2.77, -2.77, -2.32, -2.16, -2.82, -2.61, -2.84, -2.2, -1.57, -0.63, -1.99, -1.49, -0.89, 0.0, 0.0, 0.6, 1.26, 1.26, 1.86, 1.58, 1.9, 2.15, 2.5, 3.07, 3.2, 3.35, 2.84, 2.86, 1.76, 1.32, 0.0, 0.0, 0.0, 0.96, 1.84, 1.03, 0.89, 0.0, 0.0, 0.0, 0.0, -3.2, -1.19, -0.0, -0.0, -0.0, -0.87, -0.87, -0.0, -0.0, -0.0, 0.0, -1.26, 0.0, 2.24, 2.8, 2.53, 1.27, -0.0, -0.0, -0.0, -0.0, -0.0, 2.4, -7.51, -7.51, -7.51, -7.51, -7.23, -7.55, -7.81, -7.81, -8.15, -8.15, -8.15, -8.38, -8.73, -8.73, -8.45, -8.45, -8.78, -8.78, -8.22, -7.93, -7.93, -7.61, -7.61, -7.33, -6.97, -6.97, -6.71, -6.35, -6.34, -5.41, -5.08, -4.47, -4.47, -3.84, -3.42, -3.2, -2.77, -2.8, -2.82, -2.82, -2.84, -2.84, -2.44, -1.57, -1.57, -2.95, -0.45, 0.0, 0.89, 0.6, 0.8, 0.99, 1.24, 1.58, 1.58, 1.9, 2.15, 2.68, 3.07, 3.07, 3.14, 2.84, 4.02, 1.52, 1.52, 1.52, 0.88, 1.52, 1.99, 1.03, 0.0, 0.0, -1.49, 0.0, 1.63, 0.0, -0.0, -0.0, -1.05, -0.98, -1.13, -0.98, -0.98, -0.99, -1.79, -1.79, 0.0, 0.0, 2.68, 2.68, 1.6, 1.27, -0.0, -0.0, -0.0, -0.0, -0.0, -0.0, -7.51, -7.51, -7.51, -7.51, -7.23, -7.55, -7.81, -7.81, -8.15, -8.15, -8.15, -8.38, -8.73, -8.73, -8.45, -8.45, -8.78, -8.78, -8.5, -8.22, -7.93, -7.61, -7.61, -7.32, -6.71, -6.71, -6.98, -6.35, -6.34, -5.71, -5.08, -4.47, -4.47, -4.47, -3.83, -3.83, -3.4, -3.42, -2.8, -2.82, -2.82, -2.84, -2.61, -2.2, -2.36, -1.08, 0.0, 0.6, 0.6, 0.8, 0.57, 0.57, 1.24, 1.24, 1.58, 1.9, 2.5, 2.68, 2.68, 3.07, 2.79, 2.84, 2.23, 3.0, 2.8, 2.8, 1.52, 1.41, 1.05, 0.0, 0.0, -0.95, -1.49, 0.0, 0.0, 3.2, 3.72, 2.53, -0.96, -2.4, -1.6, -0.87, -0.98, -0.99, -1.79, 0.0, 1.9, 3.13, 3.13, 3.13, 3.2, 1.6, -0.0, -1.13, 0.0, 0.0, 0.0, 0.0, -7.51, -7.51, -7.51, -7.23, -7.23, -7.55, -7.81, -7.81, -8.15, -8.15, -8.15, -8.15, -8.73, -8.73, -8.73, -8.45, -8.45, -8.78, -8.78, -8.22, -8.22, -7.32, -7.32, -7.32, -6.98, -6.98, -6.98, -6.98, -6.06, -5.71, -5.37, -4.78, -4.47, -4.47, -4.73, -4.05, -4.05, -3.4, -3.21, -3.47, -3.22, -3.49, -2.84, -2.84, -2.36, -1.7, -0.55, 0.0, 0.54, 0.57, 0.57, 0.71, 0.71, 1.24, 1.24, 1.9, 1.9, 2.5, 2.68, 2.68, 3.07, 2.53, 2.51, 3.0, 2.8, 3.0, 3.0, 1.52, 0.0, 0.0, 0.0, -1.01, -1.73, -0.89, 0.0, 2.82, 4.42, 4.74, 3.58, -1.27, -1.99, -0.79, -0.87, -0.99, -0.0, 1.79, 3.39, 3.39, 3.2, 3.58, 3.58, 3.2, 1.4, -1.9, -2.24, 0.0, 0.0, 0.0, -7.51, -7.51, -7.51, -7.23, -7.23, -7.55, -7.55, -7.81, -8.15, -8.15, -8.15, -8.15, -8.73, -8.73, -8.45, -8.45, -8.45, -8.78, -8.78, -8.22, -8.22, -7.9, -7.3, -6.98, -6.7, -6.98, -6.98, -6.98, -6.35, -6.32, -5.69, -5.08, -5.08, -5.08, -5.1, -4.71, -4.45, -4.05, -4.08, -3.45, -3.47, -3.22, -3.49, -3.49, -2.82, -2.18, -1.07, -0.57, 0.0, 0.0, 0.0, 0.0, 0.54, 0.54, 1.24, 1.61, 1.61, 2.15, 2.5, 2.91, 2.68, 2.53, 2.23, 2.23, 4.29, 3.0, 1.32, 0.96, 0.0, 0.0, -1.49, -1.84, -1.73, -0.89, 0.0, 1.96, 3.77, 3.99, 4.42, 3.16, -1.27, -1.7, -1.66, -0.99, -0.0, 1.58, 2.24, 3.2, 3.39, 3.58, 4.02, 2.24, -0.0, -1.9, -2.68, -2.68, -2.68, -2.68, -7.51, -7.51, -7.51, -7.23, -7.23, -7.55, -7.81, -7.81, -8.15, -8.15, -7.86, -7.86, -8.45, -8.45, -8.45, -8.45, -8.45, -8.45, -8.78, -8.45, -7.9, -7.9, -7.3, -6.98, -6.7, -6.7, -6.7, -6.69, -6.34, -6.32, -6.28, -5.69, -5.69, -5.1, -5.1, -5.1, -5.09, -4.45, -4.46, -3.84, -3.85, -3.84, -3.84, -3.49, -3.22, -2.82, -2.4, -1.57, -1.11, 0.0, 0.0, 0.0, 0.0, 0.0, 0.54, 1.2, 1.61, 1.9, 2.15, 2.4, 2.8, 2.5, 2.53, 2.23, 2.44, 1.4, 0.0, 0.0, 0.0, -0.95, -1.96, -1.96, -0.89, 0.0, 0.89, 1.84, 1.84, 1.73, 2.82, 3.55, 1.6, -1.19, -0.96, -0.0, 0.99, 1.2, 1.79, 2.68, 3.13, 4.02, 0.0, 0.0, -2.24, -3.13, -3.13, -2.68, -2.68, -2.68, -7.17, -7.17, -7.51, -7.23, -7.23, -7.55, -7.81, -7.81, -8.15, -7.86, -7.86, -8.19, -8.45, -8.45, -8.45, -8.45, -8.45, -8.45, -8.45, -8.45, -7.9, -7.9, -7.3, -6.98, -6.98, -6.98, -6.7, -6.69, -6.34, -6.32, -6.28, -6.28, -6.01, -5.69, -5.71, -5.44, -5.45, -5.09, -4.45, -4.46, -4.1, -4.12, -3.84, -3.84, -3.22, -2.82, -2.4, -2.2, -1.76, -1.13, -0.51, 0.0, 0.0, 0.0, 0.54, 1.2, 1.2, 1.2, 1.9, 2.4, 2.4, 2.5, 2.21, 2.51, 2.48, 1.4, 0.0, 0.0, 0.0, -0.95, -0.89, -0.89, 0.0, 0.0, 0.94, 0.94, 0.94, 0.89, 1.96, 1.84, 2.16, -0.0, -0.0, -0.0, 1.8, 2.53, 2.4, 2.24, 3.13, 0.0, 0.0, -1.9, -2.68, -2.68, -2.68, -2.68, -2.68, -2.68, -7.17, -7.17, -7.51, -7.51, -7.23, -7.55, -7.81, -8.15, -8.15, -7.86, -7.86, -8.19, -8.45, -8.45, -8.45, -8.45, -8.73, -8.45, -8.45, -8.45, -8.45, -8.19, -7.3, -7.3, -7.32, -6.98, -6.7, -6.69, -6.34, -6.32, -6.28, -6.62, -6.28, -5.71, -5.71, -5.44, -5.72, -5.72, -5.09, -5.1, -4.47, -4.47, -4.12, -3.84, -3.47, -3.22, -2.84, -2.2, -2.22, -1.58, -1.13, -0.51, -0.61, 0.0, 0.0, 0.65, 1.2, 1.2, 1.49, 1.86, 2.4, 2.4, 2.5, 2.53, 2.51, 1.52, 0.0, 0.0, 0.0, 0.0, 0.0, 0.0, 0.0, 0.0, 0.0, 0.0, 0.0, 0.89, 1.73, 1.84, 0.95, -2.68, -1.98, -0.0, 1.83, 2.84, 2.97, 2.68, 0.0, 0.0, 0.0, -1.9, -2.68, -2.68, -2.68, -2.68, -2.68, -2.68, -7.17, -7.17, -7.51, -7.51, -7.23, -7.55, -7.81, -8.15, -8.15, -7.86, -7.86, -8.45, -8.45, -8.45, -8.45, -8.45, -8.73, -8.73, -8.73, -8.73, -7.86, -7.86, -7.59, -7.3, -7.6, -7.32, -6.98, -6.69, -6.95, -6.32, -6.28, -6.62, -6.87, -6.28, -5.71, -5.71, -5.72, -5.72, -5.45, -5.1, -5.1, -4.75, -4.45, -4.12, -3.84, -3.22, -2.84, -2.84, -2.44, -2.22, -1.58, -1.27, -1.13, -0.61, 0.0, 0.65, 0.65, 0.65, 1.2, 1.58, 1.86, 2.4, 2.15, 2.21, 1.88, 1.83, 1.84, 0.96, 0.0, -0.95, -1.73, -1.84, 0.0, 0.0, 0.0, 0.0, 0.89, 0.89, 1.84, 1.84, 1.73, 0.0, -3.16, -0.0, 2.29, 2.68, 2.54, 2.24, 0.0, 0.0, -1.79, 0.0, 0.0, -2.68, -2.68, -2.68, -2.68, -2.68, -7.17, -7.17, -7.51, -7.51, -7.23, -7.55, -7.81, -8.15, -8.15, -7.86, -8.19, -8.45, -8.45, -8.45, -8.73, -8.73, -8.73, -8.73, -8.38, -8.38, -8.15, -7.86, -7.59, -7.6, -7.6, -7.32, -7.3, -6.69, -6.95, -6.32, -6.28, -6.28, -6.52, -6.28, -6.01, -5.71, -5.44, -5.72, -5.72, -5.72, -5.38, -5.08, -4.47, -4.45, -4.12, -3.47, -3.49, -2.84, -2.2, -2.44, -2.22, -1.76, -1.27, -0.61, 0.0, 0.0, 0.65, 0.65, 0.65, 1.24, 1.86, 2.17, 2.4, 1.9, 1.61, 2.0, 1.99, 1.84, 0.0, -1.72, -2.82, -3.77, -3.4, -0.94, 0.0, 0.0, 0.89, 1.73, 1.84, 1.84, 0.89, 0.0, 0.0, 2.16, 2.82, 2.98, 2.97, 2.68, 2.24, 0.0, -1.58, -1.79, -1.26, -1.9, -2.68, -2.24, -2.24, -2.24, -7.17, -7.17, -7.51, -7.51, -7.23, -7.55, -7.81, -8.15, -8.15, -7.86, -8.45, -8.45, -8.45, -8.45, -8.73, -8.73, -8.73, -8.38, -8.38, -8.38, -8.15, -8.15, -7.86, -8.19, -7.6, -7.6, -7.3, -6.97, -6.95, -6.32, -6.28, -6.28, -6.52, -6.28, -6.28, -5.71, -5.71, -5.44, -5.72, -5.72, -5.44, -5.1, -5.08, -4.45, -4.45, -3.84, -3.49, -2.84, -2.84, -2.2, -2.44, -2.22, -1.76, -1.13, -0.61, 0.0, 0.0, 0.0, 0.0, 0.54, 1.26, 2.12, 1.86, 1.86, 1.49, 1.16, 0.96, 1.05, 0.88, 0.0, -1.98, -3.55, -4.42, -4.42, -0.94, 0.0, 0.0, 0.89, 0.94, 0.94, 0.94, 0.0, 2.84, 4.11, 2.53, 2.84, 2.6, 2.68, 2.68, 1.79, -0.0, -2.4, -3.13, -2.8, -2.68, -2.68, -2.68, -2.68, -7.17, -7.17, -7.51, -7.51, -7.23, -7.55, -7.81, -8.15, -8.15, -8.19, -8.45, -8.45, -8.45, -8.73, -8.73, -8.73, -8.73, -8.38, -8.38, -8.38, -8.38, -8.38, -7.86, -8.19, -7.9, -7.6, -7.3, -6.97, -6.95, -6.32, -6.28, -6.28, -6.52, -6.28, -6.28, -6.01, -5.71, -5.44, -5.72, -5.44, -5.71, -5.41, -5.08, -4.75, -4.45, -4.12, -3.84, -3.49, -2.84, -2.84, -2.61, -2.44, -2.22, -1.13, -0.61, 0.0, 0.0, 0.0, 0.0, 0.0, 0.8, 1.6, 2.12, 1.86, 1.24, 1.2, 2.0, 2.0, 1.05, 1.03, 0.0, -0.89, -2.8, -3.91, -3.55, -1.96, 0.0, 0.0, 0.0, 0.0, 0.0, 0.89, 2.84, 2.64, 2.53, 2.84, 2.53, 2.21, 2.68, 2.24, 0.0, -2.4, -3.58, -3.13, -3.13, -2.68, -2.68, -2.68, -7.17, -7.17, -7.51, -7.51, -7.23, -7.55, -7.81, -8.15, -8.15, -8.19, -8.45, -8.45, -8.45, -8.73, -8.73, -8.73, -8.73, -8.38, -8.38, -8.38, -8.73, -8.73, -8.73, -8.19, -8.19, -7.9, -7.3, -7.27, -6.95, -6.59, -6.28, -6.28, -6.79, -6.52, -6.28, -6.28, -5.71, -5.71, -5.44, -5.44, -5.71, -5.41, -5.08, -5.06, -4.75, -4.45, -3.84, -3.49, -3.49, -2.84, -2.84, -2.61, -2.22, -1.8, -1.13, -0.61, 0.0, 0.0, 0.0, 0.0, 0.0, 0.95, 1.6, 1.6, 1.26, 1.24, 1.2, 1.0, 1.05, 1.03, 0.0, 0.0, 0.89, 0.0, 0.0, -1.98, -0.95, 0.0, 0.0, 0.0, 0.0, 1.96, 1.99, 0.89, 0.81, 2.0, 2.41, 1.98, 2.8, 2.24, -0.0, -1.58, -2.8, -3.13, -3.13, -1.9, -1.9, -1.9, -7.17, -7.17, -7.51, -7.51, -7.51, -7.55, -7.81, -8.15, -8.15, -7.86, -8.45, -8.73, -8.73, -8.73, -8.73, -8.73, -8.73, -8.38, -8.38, -8.38, -8.73, -8.73, -8.73, -8.45, -8.19, -8.19, -7.59, -7.27, -6.95, -6.92, -6.87, -6.52, -6.79, -6.52, -6.28, -6.28, -5.71, -5.71, -5.71, -5.71, -5.71, -5.71, -5.69, -5.08, -5.06, -4.75, -4.45, -3.84, -3.49, -3.49, -2.84, -2.84, -2.22, -2.23, -1.6, -1.16, -0.53, 0.0, 0.0, 0.0, 0.0, 0.6, 1.2, 1.2, 1.26, 0.8, 0.71, 0.65, 0.96, 0.0, 0.0, 0.89, 1.73, 1.73, 1.84, 0.0, -0.95, 0.0, 0.0, 0.0, 1.84, 3.55, 3.6, -0.0, 0.95, 1.99, 2.95, 2.0, 1.98, 1.9, 1.58, -0.0, -1.9, -2.8, -2.8, -1.9, -1.9, -1.9, -7.17, -7.17, -7.51, -7.51, -7.51, -7.81, -7.81, -8.15, -8.15, -7.86, -7.86, -8.15, -8.73, -8.73, -8.73, -8.73, -8.73, -8.38, -8.65, -9.01, -8.73, -8.73, -8.73, -8.73, -8.19, -7.86, -7.86, -7.55, -7.23, -6.92, -6.87, -6.87, -6.87, -6.87, -6.28, -6.28, -6.01, -5.71, -5.71, -5.71, -5.71, -5.71, -5.69, -5.69, -5.08, -5.08, -4.75, -4.45, -4.12, -3.49, -3.49, -3.22, -2.86, -2.48, -1.8, -1.33, -0.61, -0.61, -0.53, -0.53, 0.0, 0.0, 0.6, 0.95, 1.2, 0.6, 0.57, 0.71, 0.53, 0.0, 0.0, 0.89, 0.89, 0.89, 0.89, 0.0, -0.89, 0.0, 0.0, 0.95, 2.64, 4.42, 4.98, 3.22, 0.89, 1.03, 1.83, 1.83, 1.8, 0.99, -0.0, -0.0, -1.58, -2.21, -1.4, -1.4, -1.4, -1.4, -7.17, -7.17, -7.51, -7.51, -7.51, -7.81, -7.81, -8.15, -8.15, -8.15, -7.86, -8.15, -8.38, -8.73, -8.73, -8.73, -8.73, -8.73, -9.01, -9.01, -9.01, -9.01, -8.73, -8.73, -8.73, -8.15, -8.15, -7.55, -7.51, -7.44, -7.09, -7.09, -6.87, -6.87, -6.52, -6.28, -6.28, -5.71, -5.71, -5.71, -6.01, -6.01, -5.69, -5.69, -5.69, -5.08, -5.06, -4.45, -4.45, -4.12, -3.83, -3.49, -2.86, -2.6, -2.23, -1.6, -1.16, -0.61, -0.61, -0.61, -0.53, 0.0, 0.0, 0.63, 0.95, 0.6, 0.8, 0.0, 0.0, 0.0, 0.89, 0.95, 0.95, 0.95, 0.0, 0.0, -1.01, -0.89, 0.0, 0.95, 3.97, 3.77, 5.06, 5.26, 1.84, 0.95, 0.76, 1.7, 0.96, 0.87, -0.0, -1.2, -1.2, -1.4, -1.6, -1.4, -1.4, -1.4, -7.17, -7.17, -7.51, -7.51, -8.08, -7.81, -8.15, -7.81, -7.81, -8.15, -8.15, -8.15, -8.38, -8.73, -8.73, -8.73, -8.73, -8.73, -9.01, -9.01, -9.01, -9.21, -9.01, -8.73, -8.38, -8.38, -7.81, -7.85, -7.51, -7.44, -7.44, -7.09, -7.09, -6.87, -6.52, -6.28, -6.28, -6.01, -5.71, -6.32, -6.32, -6.28, -5.69, -5.69, -5.69, -5.37, -5.37, -5.06, -4.45, -4.74, -4.12, -3.49, -3.49, -2.86, -2.48, -1.8, -1.13, -1.33, -1.16, -1.16, -0.61, -0.53, 0.0, 0.0, 0.63, 0.95, 0.6, 0.0, 0.0, 0.0, 0.96, 1.98, 1.98, 1.72, 0.95, 0.0, 0.0, 0.0, -0.95, 1.84, 2.82, 2.67, 3.97, 5.36, 3.0, 0.95, 0.89, 0.82, 0.88, -0.0, -0.0, -1.2, -2.21, -2.53, -2.53, -1.6, -1.6, -1.6, -7.44, -7.44, -7.51, -7.51, -8.08, -7.81, -7.81, -7.81, -7.81, -8.15, -8.15, -8.38, -8.38, -8.73, -8.73, -8.73, -8.73, -9.01, -9.21, -9.21, -9.21, -9.21, -9.21, -9.21, -8.38, -8.38, -8.08, -7.73, -7.8, -7.44, -7.44, -7.44, -7.09, -6.87, -6.52, -6.52, -6.28, -6.28, -6.32, -6.32, -6.32, -6.01, -6.28, -5.69, -5.98, -5.65, -5.65, -5.65, -5.06, -5.01, -4.74, -3.83, -3.49, -3.2, -2.86, -2.23, -1.8, -1.13, -1.13, -1.33, -1.16, -0.61, -0.53, 0.0, 0.0, 0.95, 0.0, 0.0, 0.0, 0.53, 1.13, 1.84, 1.98, 1.98, 0.95, 0.95, 0.89, 0.89, 0.95, 1.96, 1.73, 1.84, 2.82, 5.36, 3.0, -0.0, -0.0, -0.0, -0.0, -0.0, -0.0, -0.99, -1.2, -1.6, -1.6, -1.6, -1.6, -1.6, -7.44, -7.44, -7.51, -7.73, -8.08, -8.08, -8.08, -7.81, -7.81, -8.15, -8.38, -8.38, -8.38, -8.38, -8.38, -8.73, -9.01, -9.21, -9.21, -9.21, -9.21, -8.84, -8.84, -8.84, -8.65, -8.65, -8.08, -8.0, -8.0, -8.0, -7.64, -7.64, -7.44, -7.09, -6.87, -6.52, -6.28, -6.62, -6.32, -6.32, -6.32, -6.32, -6.28, -5.69, -5.98, -5.98, -5.98, -5.65, -5.65, -5.06, -5.01, -4.12, -4.11, -3.49, -2.86, -2.48, -1.8, -1.8, -1.6, -1.6, -1.33, -1.16, -0.61, 0.0, 0.0, 0.0, 0.0, 0.0, 0.0, 0.0, 0.53, 0.96, 1.99, 1.63, 1.03, 0.95, 0.89, 0.89, 0.0, 0.0, 0.89, 0.89, 2.82, 4.98, 2.99, -0.0, -0.0, -0.0, -0.0, -0.82, -0.81, -0.87, -0.99, -1.2, -1.4, -1.2, -1.2, -1.2, -7.44, -7.44, -7.51, -7.73, -7.73, -7.73, -8.08, -8.08, -8.15, -8.38, -8.38, -8.38, -8.38, -8.38, -8.38, -8.65, -9.01, -9.21, -9.21, -9.21, -9.21, -8.84, -8.84, -8.84, -8.65, -8.65, -8.55, -8.0, -8.0, -8.0, -8.0, -8.0, -7.64, -7.72, -7.35, -6.87, -6.87, -6.87, -6.59, -6.59, -6.59, -6.32, -6.28, -6.23, -6.23, -6.23, -6.23, -6.23, -5.65, -5.65, -4.74, -4.43, -4.11, -3.79, -3.2, -2.6, -2.48, -1.8, -1.8, -1.8, -1.6, -1.33, -1.16, -0.53, 0.0, 0.0, 0.0, 0.0, 0.0, 0.0, 0.0, 0.65, 1.16, 1.52, 0.96, 0.95, 0.89, 0.89, 0.0, 0.0, 0.0, 1.01, 1.96, 4.43, 4.77, 0.95, -0.0, -0.0, -0.0, -0.95, -1.98, -1.99, -1.8, -1.74, -2.21, -2.8, -2.8, -2.8, -7.44, -7.44, -7.51, -7.73, -7.73, -7.73, -8.08, -8.08, -8.15, -8.38, -8.38, -8.38, -8.38, -8.38, -8.38, -8.65, -9.01, -9.21, -9.21, -9.21, -9.21, -8.84, -8.84, -8.84, -8.65, -8.65, -8.55, -8.0, -8.0, -8.0, -8.0, -8.0, -7.64, -7.72, -7.35, -6.87, -6.87, -6.87, -6.59, -6.59, -6.59, -6.32, -6.28, -6.23, -6.23, -6.23, -6.23, -6.23, -5.65, -5.65, -4.74, -4.43, -4.11, -3.79, -3.2, -2.6, -2.48, -1.8, -1.8, -1.8, -1.6, -1.33, -1.16, -0.53, 0.0, 0.0, 0.0, 0.0, 0.0, 0.0, 0.0, 0.65, 1.16, 1.52, 0.96, 0.95, 0.89, 0.89, 0.0, 0.0, 0.0, 0.95, 1.84, 3.91, 5.4, 4.8, 0.95, -0.0, -0.0, -0.89, -1.84, -1.84, -2.95, -3.16, -2.84, -2.8, -2.8, -2.8]}]